GFSFLT1_925_thetae_000.txt.gz
Theta_e
334 333 328 328 328 326 325 327 329 330 330 331 330 329 327 326 323 324 322 325 325 326 330 330 330 329 330 330 331 333 334 332 331
334 332 330 329 328 326 326 329 329 329 330 332 333 332 331 328 326 323 321 321 323 328 328 328 329 330 330 330 330 330 331 332 332
333 334 333 331 331 328 331 330 331 330 329 330 331 331 330 329 327 325 324 322 322 327 328 330 329 328 329 329 330 330 330 329 329
328 333 334 332 328 328 328 326 325 325 326 325 324 324 324 324 325 326 326 327 326 329 329 330 330 330 330 328 328 329 329 330 330
327 327 328 328 329 326 322 326 328 329 329 328 328 328 328 328 328 328 328 328 328 331 332 331 331 330 331 330 330 328 328 330 328
330 330 329 327 328 329 330 331 331 331 331 331 331 330 330 330 331 331 331 330 329 332 332 331 332 331 330 330 330 331 330 329 328
329 329 329 330 331 332 332 332 332 332 331 330 331 331 330 331 330 329 331 331 332 333 333 332 332 332 331 330 331 332 331 331 330
330 331 331 332 332 332 333 332 331 331 329 327 326 324 325 326 327 327 327 326 327 333 334 333 332 332 332 333 334 333 332 331 329
332 333 333 333 334 333 331 327 321 321 321 318 317 316 317 319 324 325 323 318 319 329 328 328 329 331 331 333 333 332 331 331 331
334 333 332 328 326 323 319 320 318 316 315 314 313 314 314 313 314 313 314 315 316 318 325 328 330 331 330 332 331 330 328 328 329
332 325 320 317 317 316 316 314 313 311 310 309 308 310 310 310 308 312 311 311 311 313 318 319 324 328 328 328 327 327 327 327 328
321 320 316 314 314 314 313 311 308 305 304 304 303 304 305 304 309 308 305 310 307 307 308 313 312 314 315 316 319 319 318 318 318
321 312 311 311 311 309 307 303 300 302 299 300 301 300 303 305 303 300 305 304 305 303 306 304 303 304 308 312 312 313 313 312 313
309 308 306 305 305 303 300 299 299 300 298 299 299 299 304 303 299 299 303 298 303 301 301 299 299 301 306 305 307 308 309 310 312
305 304 303 302 300 299 298 297 296 299 298 300 298 301 304 302 298 299 297 301 300 299 299 298 297 300 300 302 303 304 307 310 311
304 302 301 300 298 297 297 296 296 297 297 299 298 300 299 300 296 298 296 299 296 298 297 298 297 298 297 298 300 301 303 305 307
301 299 298 298 296 295 295 295 295 296 295 297 297 297 298 298 295 297 296 296 296 297 295 296 297 295 296 295 294 296 300 302 303
299 298 297 296 295 294 294 293 293 293 293 296 296 296 296 295 297 294 296 294 295 293 295 294 296 295 294 293 293 296 299 299 301
297 296 295 294 294 293 293 292 292 292 292 293 294 293 294 293 293 294 293 294 292 293 294 294 295 294 293 292 293 295 295 296 298
295 294 294 293 293 292 292 291 291 291 291 291 291 291 292 292 292 291 291 292 292 293 293 293 293 292 292 293 292 293 294 296 296

GFSFLT1_925_thetae_003.txt.gz
Theta_e
333 332 329 328 328 325 325 326 328 329 330 331 332 331 330 328 325 322 321 321 324 327 328 329 330 329 329 330 331 331 334 334 333
334 332 331 329 328 327 329 330 330 330 329 330 331 331 330 330 330 328 325 322 321 325 328 329 329 328 330 329 329 329 330 331 330
332 332 333 330 331 330 329 330 330 330 330 329 329 329 327 327 325 325 326 326 326 328 328 329 329 330 329 328 328 328 329 328 328
328 334 334 333 330 327 328 326 327 328 330 329 328 327 326 325 326 327 328 327 327 332 332 331 331 331 331 331 330 329 328 327 327
327 328 329 328 328 327 326 329 330 330 330 330 330 330 329 329 329 330 330 330 329 332 334 334 333 333 332 331 331 331 331 329 327
329 328 328 327 328 329 330 331 332 331 330 331 330 330 330 329 329 330 328 330 330 334 334 335 334 334 333 332 330 331 332 332 332
328 328 328 329 330 331 332 332 331 330 329 328 325 322 319 320 323 326 328 328 331 331 333 335 334 334 334 333 333 333 333 333 332
329 330 330 331 331 332 332 330 325 321 317 317 315 314 315 315 316 320 320 316 323 325 329 330 329 330 331 332 333 333 334 334 332
331 332 332 332 333 331 324 317 318 317 314 312 312 310 311 312 312 312 313 314 315 323 326 326 328 330 331 333 332 332 331 329 329
333 332 330 326 321 317 317 315 313 311 309 307 306 306 306 306 307 311 309 311 311 316 320 323 325 323 324 326 327 326 327 328 328
330 323 321 318 315 313 311 310 306 304 303 302 302 302 301 304 307 305 308 307 306 308 318 314 314 313 317 320 320 320 320 319 319
325 319 317 313 310 309 307 303 301 300 300 299 300 300 301 305 301 301 305 301 304 304 306 307 308 310 313 312 314 315 315 315 315
321 314 309 307 305 303 301 300 298 298 297 297 299 298 301 300 297 302 298 300 301 300 299 298 299 307 307 308 309 310 310 311 313
309 305 304 303 302 300 299 297 296 297 295 296 297 298 302 301 300 299 297 299 297 298 298 296 297 300 303 304 305 306 308 310 312
305 304 303 301 299 297 296 295 295 297 294 295 296 299 303 301 300 297 296 297 296 297 296 295 295 297 298 299 301 302 302 304 307
304 303 301 298 297 295 294 294 294 294 294 296 296 299 299 299 298 296 295 296 295 294 295 293 295 295 296 295 297 297 299 304 304
302 300 299 297 295 294 293 293 292 292 293 295 295 295 296 298 297 295 294 296 293 293 292 292 293 295 295 294 293 294 300 301 302
300 299 297 295 294 293 292 292 291 292 292 294 293 291 293 293 295 293 294 292 293 292 291 291 293 294 292 292 292 293 297 298 300
298 297 295 294 293 292 291 291 291 291 291 291 290 290 292 292 291 292 291 292 291 291 290 291 293 292 292 291 292 294 295 297 298
296 295 293 293 292 291 291 290 290 290 290 289 289 289 289 290 290 289 289 289 289 288 290 291 290 291 291 292 292 293 294 294 295

GFSFLT1_925_thetae_006.txt.gz
Theta_e
333 331 329 328 328 324 324 325 327 328 329 331 332 332 331 329 327 326 324 322 318 321 329 329 327 328 329 329 330 331 331 334 335
334 334 330 329 328 327 328 330 331 331 331 330 330 332 330 330 328 325 325 326 325 326 327 328 329 329 327 328 329 328 327 329 329
333 334 332 330 330 332 330 332 332 331 331 331 331 328 326 326 325 325 326 327 327 331 332 330 330 329 331 330 329 328 329 328 328
329 334 334 333 331 328 328 331 331 331 331 330 330 329 329 328 328 328 329 329 329 333 334 334 333 332 332 332 332 332 331 330 328
326 329 331 327 326 327 330 331 331 331 331 331 331 330 330 329 329 329 329 329 330 334 335 335 335 335 334 333 333 333 333 332 331
326 327 327 327 328 330 331 332 332 331 330 329 328 326 322 320 321 324 326 328 330 332 332 334 334 334 334 334 334 333 332 332 333
328 328 328 328 330 331 332 331 330 328 325 321 317 315 314 314 314 318 322 322 326 326 326 329 332 331 331 332 333 331 332 334 333
328 329 330 331 331 331 331 327 319 316 315 313 310 309 309 310 311 312 313 314 320 324 325 326 327 331 332 331 332 331 333 332 331
330 331 330 331 331 329 316 315 314 311 308 307 305 305 304 304 306 310 310 313 318 321 323 325 326 323 325 327 329 327 328 329 329
333 329 328 323 317 316 313 311 308 306 304 302 301 301 301 303 307 306 308 307 309 320 316 317 316 317 320 321 321 321 321 321 321
330 323 318 315 312 310 307 303 302 300 300 300 300 300 301 303 301 304 303 304 304 309 310 310 310 314 314 315 316 316 316 316 317
324 317 312 308 305 302 301 300 299 300 299 299 298 298 300 298 300 300 300 300 300 300 303 305 307 308 309 311 311 312 312 313 314
317 312 306 302 302 301 300 299 298 297 296 297 297 297 301 298 298 299 298 298 298 298 296 296 299 303 304 306 307 308 309 311 313
309 305 303 302 302 300 298 296 295 295 294 296 296 296 300 299 298 297 297 296 296 296 295 294 293 295 300 301 302 304 304 305 306
305 305 303 301 299 297 295 294 293 293 293 295 295 298 301 300 299 297 296 295 296 295 293 293 292 293 296 298 299 300 300 302 304
305 304 301 299 297 294 293 293 292 292 293 294 294 297 297 297 298 295 295 295 294 293 293 291 291 291 293 294 295 296 297 300 304
304 302 300 296 295 293 292 292 292 292 292 291 293 292 294 294 295 294 294 293 293 292 291 290 289 291 293 293 293 293 295 299 301
301 299 297 295 294 292 291 291 291 291 291 292 291 289 290 291 293 293 292 292 291 290 289 288 290 290 290 290 291 291 295 297 299
298 297 296 294 292 292 291 290 290 290 289 290 289 289 290 289 289 291 289 290 288 288 288 288 288 288 289 290 290 291 294 295 296
296 295 294 293 291 291 290 290 289 289 288 288 288 288 288 289 287 287 287 287 287 286 287 287 288 288 288 289 290 291 292 293 294

GFSFLT1_925_thetae_012.txt.gz
Theta_e
332 330 329 328 328 325 327 330 331 332 332 331 331 329 330 329 331 330 330 330 328 327 330 327 329 331 329 328 330 330 331 332 333
333 334 329 328 328 328 330 332 333 333 331 332 332 331 326 330 331 332 332 332 328 331 332 332 331 330 331 330 330 329 329 329 329
334 335 330 331 331 330 329 332 333 332 333 333 332 330 330 332 333 333 332 332 329 332 333 332 332 334 333 333 332 332 330 330 330
334 335 333 333 331 327 330 332 333 333 331 330 330 329 329 330 331 330 330 330 328 333 334 335 335 336 337 335 335 333 334 334 333
327 333 334 332 327 329 332 332 332 331 329 328 327 325 323 323 322 323 326 323 328 333 333 333 331 333 335 334 335 336 335 335 334
328 329 327 327 329 330 331 331 329 326 322 320 319 318 318 318 317 317 316 318 325 328 328 327 327 330 331 332 333 333 332 332 332
328 328 327 328 329 330 331 328 322 318 317 315 313 313 311 311 311 313 311 313 322 324 325 326 329 328 328 330 332 333 334 334 334
329 329 330 332 330 324 321 318 314 312 310 309 308 307 306 307 309 312 310 314 320 323 326 323 322 324 325 324 325 325 325 325 327
329 331 332 328 325 320 316 313 309 307 305 304 305 305 305 307 308 311 311 320 321 320 319 318 320 320 320 320 320 319 320 320 321
331 323 324 319 314 313 311 308 305 304 303 302 303 303 304 304 306 309 308 313 314 314 314 316 314 314 316 317 316 316 316 317 318
323 326 322 313 309 306 304 303 303 302 301 301 301 301 302 303 304 305 305 304 306 307 307 307 308 308 310 311 311 312 313 313 314
328 321 314 307 304 303 303 302 302 301 301 301 300 301 301 302 303 302 302 301 298 298 299 300 301 302 304 306 307 308 308 309 309
322 312 307 303 303 302 301 300 301 301 300 301 301 300 301 300 301 300 300 299 299 298 295 294 293 293 297 301 304 304 304 306 306
317 307 304 302 301 300 299 299 299 299 299 299 299 300 302 300 299 299 299 298 298 297 296 294 293 293 294 299 301 302 302 303 303
307 304 303 301 300 299 298 298 298 297 297 298 299 302 303 300 301 300 298 297 296 296 295 294 294 293 294 296 298 298 299 301 301
305 303 301 300 299 298 297 297 297 297 296 298 300 300 299 302 302 297 297 296 295 294 294 294 293 293 293 293 294 296 297 298 299
304 302 300 299 298 297 296 297 297 296 295 296 298 301 300 299 298 297 296 295 294 294 293 293 292 292 292 292 293 293 295 296 298
302 301 299 298 297 296 296 295 295 296 295 294 296 299 299 296 297 297 295 295 293 293 292 292 292 291 291 291 292 292 293 294 296
300 299 297 297 296 295 294 293 294 294 295 294 293 293 293 295 297 296 295 293 293 292 292 291 291 291 290 290 291 291 292 292 294
297 297 296 295 294 294 293 293 293 292 293 293 293 293 293 293 294 295 295 293 293 292 291 290 290 290 290 290 290 290 290 292 293

GFSFLT1_925_thetae_015.txt.gz
Theta_e
333 331 330 328 327 327 330 332 332 332 332 332 332 329 329 327 331 331 332 332 331 327 332 332 329 330 332 330 330 331 330 331 333
335 333 329 329 329 330 332 333 333 332 332 333 332 330 329 332 333 333 333 333 332 331 333 334 333 333 333 332 332 331 330 330 330
334 334 330 331 332 330 331 332 333 333 334 333 331 330 329 332 332 332 332 332 330 333 333 335 336 336 337 336 335 334 334 332 332
337 335 333 334 330 327 331 333 333 331 330 329 328 327 326 327 328 327 327 329 326 333 332 335 334 334 335 335 335 336 336 335 335
331 332 333 332 326 330 332 331 331 329 328 325 323 322 323 323 321 321 324 317 326 331 330 329 328 329 332 333 333 334 334 334 334
329 333 329 326 328 330 331 331 327 323 320 318 317 317 318 316 316 315 316 312 322 325 326 327 328 330 330 330 332 334 334 334 334
330 329 326 327 329 330 330 327 321 318 319 316 313 312 310 310 311 314 313 314 321 322 327 327 326 328 327 326 327 327 327 327 328
328 330 328 331 331 327 323 320 317 313 311 308 309 309 308 309 310 313 309 320 323 325 322 322 324 322 322 323 322 321 322 322 323
329 329 331 330 326 323 320 318 313 309 307 306 306 306 305 307 308 312 315 319 320 319 320 319 318 318 319 318 318 318 318 319 320
330 330 326 323 319 317 315 311 308 306 305 305 304 304 304 305 307 310 311 314 314 313 313 312 312 312 313 314 313 314 315 315 315
328 323 320 318 314 310 308 306 306 305 304 303 303 303 304 304 306 307 306 305 306 306 306 305 305 305 306 308 309 310 310 310 311
323 319 318 313 308 306 306 305 304 304 303 303 303 302 303 303 305 304 304 303 301 298 297 297 297 298 301 303 305 307 307 306 307
319 316 312 308 306 306 304 302 303 303 302 302 302 302 302 302 303 302 302 301 300 300 298 296 295 296 297 302 303 305 305 304 305
326 314 308 306 305 303 302 301 301 301 301 300 300 303 302 302 301 301 301 300 299 299 298 296 295 295 297 299 301 302 302 302 303
317 309 306 305 303 302 301 301 301 300 299 300 301 303 304 302 302 302 301 299 298 297 296 295 295 295 295 296 297 299 300 301 302
309 307 305 304 303 301 301 301 300 299 298 301 302 302 301 304 304 302 299 298 297 296 296 295 295 294 294 295 295 297 298 299 300
307 305 304 302 301 301 300 300 300 299 297 298 301 304 302 301 300 299 299 297 296 296 295 294 294 293 293 293 294 294 295 297 298
305 304 302 302 301 300 299 299 298 299 297 296 297 301 303 298 299 299 298 297 296 295 295 294 293 293 292 292 292 293 293 295 296
303 302 301 301 299 299 297 297 297 297 297 297 295 295 295 297 298 298 298 297 295 295 295 294 292 292 292 292 292 292 292 293 294
301 300 300 299 298 297 297 296 296 295 295 295 295 295 295 295 295 297 297 296 295 295 294 293 292 292 291 291 290 291 291 292 293

GFSFLT1_925_thetae_018.txt.gz
Theta_e
333 332 329 328 327 331 333 333 332 328 328 332 329 325 326 330 332 332 332 332 332 329 333 332 333 329 329 331 331 331 331 330 331
332 332 329 329 329 332 333 332 332 331 333 332 330 329 329 332 331 332 332 330 332 331 333 335 336 336 336 335 334 333 333 332 331
336 333 330 331 330 327 331 331 332 333 331 329 328 327 326 330 329 330 330 331 330 333 331 335 335 335 335 334 336 336 335 334 335
337 334 332 333 327 329 332 332 331 330 329 327 325 324 323 323 322 323 325 323 323 331 331 331 330 330 332 334 334 334 335 335 335
335 333 333 331 325 329 331 330 329 325 320 320 319 320 320 318 318 317 318 317 321 325 328 328 328 331 331 331 333 334 335 335 335
330 335 330 325 326 329 330 329 324 319 320 317 313 313 312 311 311 312 314 313 321 323 326 328 329 329 328 328 328 328 328 327 328
332 331 325 325 329 330 326 321 318 317 315 312 309 309 309 309 310 312 312 309 319 327 325 327 325 325 324 324 323 323 323 323 324
330 325 324 330 330 325 322 318 316 312 308 307 306 307 306 307 309 311 310 324 324 322 324 322 321 322 321 321 320 320 320 321 322
328 330 331 329 327 323 320 316 311 307 306 305 304 305 305 306 308 310 311 319 319 320 318 317 316 316 317 316 316 316 317 317 316
328 331 329 325 320 317 313 310 307 306 305 304 303 303 304 305 307 309 308 314 313 313 312 311 310 309 309 310 311 311 312 312 312
329 326 323 319 316 312 308 306 306 305 304 303 303 303 303 304 306 307 305 305 303 303 305 305 305 305 305 306 307 308 308 308 308
328 325 318 314 310 307 306 305 304 303 303 303 303 302 302 303 305 304 304 302 301 300 299 297 300 301 303 305 306 306 307 306 306
328 323 313 311 309 306 304 302 303 302 301 301 300 301 302 302 303 302 301 301 300 300 299 297 298 298 300 302 303 304 305 305 305
326 316 312 309 306 304 302 302 301 300 300 300 300 302 302 302 301 301 301 300 300 298 298 296 296 297 298 299 301 302 303 303 303
319 313 309 307 304 302 302 302 301 300 298 300 301 302 303 302 301 302 302 300 298 297 296 295 295 295 296 297 298 299 300 301 302
314 309 307 305 303 302 301 301 301 300 298 300 301 302 301 304 303 303 301 298 297 296 296 295 295 294 294 294 295 297 298 299 301
312 309 305 304 303 302 302 301 300 299 297 297 298 298 300 300 300 301 299 298 296 296 295 295 294 293 293 292 294 295 295 296 298
309 306 304 304 303 302 301 300 299 299 297 296 296 296 297 295 298 298 298 297 297 296 295 295 294 293 292 292 292 292 294 295 296
306 305 303 303 303 302 300 299 298 298 297 296 295 295 295 293 293 297 297 296 295 295 295 294 294 293 292 292 291 292 293 294 295
304 304 303 302 302 299 299 298 296 296 295 295 294 295 295 295 293 292 294 295 294 294 294 294 293 293 292 291 291 291 292 293 293

GFSFLT1_925_thetae_024.txt.gz
Theta_e
333 330 329 330 332 332 331 326 324 325 327 327 325 326 328 331 330 330 330 331 332 332 332 333 334 334 330 330 331 332 332 331 330
334 329 328 331 333 333 333 330 330 330 329 328 328 328 329 329 331 331 331 331 332 332 331 333 335 335 335 336 336 336 335 334 332
335 329 329 331 332 333 333 333 332 330 328 325 324 324 325 324 326 330 329 328 330 332 330 331 330 333 333 334 334 334 335 335 335
335 332 333 330 332 333 333 332 329 326 322 319 321 321 320 320 323 323 321 320 324 327 329 329 331 332 331 331 331 331 333 333 334
334 332 333 327 330 331 329 328 324 319 315 313 314 314 312 315 316 315 314 318 323 325 327 331 331 330 327 327 327 327 327 328 329
334 332 331 326 327 329 329 325 320 319 316 311 310 311 310 309 311 311 312 313 328 329 330 328 328 326 325 324 324 325 325 326 326
333 331 330 323 327 329 327 318 317 316 313 309 307 308 307 308 310 312 320 327 327 325 324 323 324 323 322 321 321 321 321 321 321
330 332 328 324 328 325 318 316 314 309 307 306 305 305 305 307 309 312 321 323 323 321 320 320 320 318 318 317 316 316 316 316 316
330 331 326 326 326 322 320 315 310 306 306 304 304 304 304 307 310 312 314 322 320 318 316 314 313 312 312 312 312 312 312 312 312
330 328 324 329 326 321 317 311 308 306 305 303 303 303 304 307 309 310 313 315 314 313 311 310 309 309 310 310 310 310 310 310 310
329 327 329 328 325 318 314 311 307 305 303 303 302 302 303 305 308 306 307 307 306 307 306 306 306 306 308 308 308 309 309 308 309
324 327 329 321 316 315 313 309 305 303 302 302 302 302 302 304 305 304 303 302 301 302 303 303 303 304 305 306 307 307 307 307 307
327 328 327 318 316 314 311 306 304 302 301 301 301 301 302 303 304 303 302 301 300 299 299 298 298 300 303 304 304 305 305 305 306
327 326 320 318 316 313 307 304 303 302 301 300 300 302 301 302 302 301 301 300 299 298 297 296 296 295 298 300 301 302 303 303 304
328 325 321 318 315 310 304 304 303 301 300 300 301 302 302 301 301 300 300 300 298 297 296 296 295 295 295 296 297 299 301 301 302
328 324 320 318 315 310 304 304 303 300 300 300 301 301 303 301 301 301 301 299 297 296 295 295 295 294 294 294 295 296 298 299 300
327 327 323 318 311 304 304 305 303 300 298 299 298 297 299 301 301 301 298 297 296 295 295 294 294 294 293 293 293 293 295 296 298
326 327 325 316 310 306 306 306 305 301 298 297 298 295 297 294 296 297 296 296 295 295 294 294 293 293 292 292 292 292 293 294 296
327 325 320 315 308 305 306 306 305 304 299 297 296 295 295 292 293 295 295 295 295 294 293 293 292 292 292 291 291 291 293 294 296
325 320 317 310 306 305 305 305 304 303 301 298 295 295 294 294 292 292 293 294 294 293 293 292 291 291 290 290 291 293 293 293 294

GFSFLT1_925_thetae_027.txt.gz
Theta_e
329 329 329 329 331 331 328 323 322 323 325 325 326 327 329 330 330 329 330 331 333 332 331 334 334 334 330 331 332 332 332 331 330
331 326 325 329 332 332 331 329 330 330 329 328 328 329 329 330 330 330 331 332 332 331 331 333 333 334 334 334 334 334 335 335 333
333 328 327 330 332 333 333 332 331 329 327 325 323 325 326 326 330 331 330 328 329 331 330 330 332 333 334 334 334 334 333 334 335
334 330 329 331 332 332 332 332 329 326 321 321 321 322 322 322 323 323 321 321 324 327 328 329 332 331 330 330 329 330 330 331 333
333 329 332 327 331 333 331 329 324 318 313 315 316 314 315 318 318 315 314 316 323 325 328 331 330 328 326 325 326 326 326 327 327
334 331 332 325 331 329 329 326 320 317 313 311 311 310 310 310 311 311 311 324 330 330 329 329 327 325 323 323 323 322 322 322 323
334 332 331 327 327 329 327 320 317 316 314 310 308 307 307 308 311 315 323 328 327 325 324 323 323 321 320 320 320 319 319 318 318
334 333 331 326 328 329 324 317 316 313 308 306 305 305 306 308 312 319 325 324 322 321 320 320 318 317 316 315 315 315 314 314 314
334 331 330 324 328 326 318 316 312 307 306 305 304 304 305 309 312 315 323 322 320 318 315 314 313 312 312 312 312 312 312 312 311
331 330 331 324 327 322 320 315 309 306 305 304 303 303 305 310 310 311 318 318 315 313 311 310 310 310 310 311 310 311 311 310 310
330 330 329 325 327 323 318 312 309 306 304 303 302 302 304 307 309 309 311 311 309 308 307 307 307 308 308 309 309 309 309 309 309
328 329 326 327 327 322 313 310 307 304 303 302 302 302 303 305 306 305 303 302 302 304 304 305 304 305 307 307 307 307 307 307 308
328 328 326 329 325 316 311 309 305 303 302 301 301 301 302 305 305 303 302 301 300 300 298 298 298 301 302 304 305 305 305 305 306
327 325 326 328 317 312 312 309 303 302 300 300 300 301 301 303 304 302 301 300 300 298 297 296 295 296 299 300 300 301 303 303 304
326 325 327 325 316 312 310 306 302 302 300 300 301 302 301 302 302 301 300 300 299 297 296 295 295 295 295 296 298 299 300 301 302
327 327 327 321 316 315 311 304 303 301 300 300 301 301 301 300 300 300 300 299 297 296 295 295 295 294 294 293 295 296 297 298 300
329 327 326 320 314 312 309 305 303 301 299 299 299 297 299 300 300 300 299 298 296 295 295 294 294 293 293 293 293 294 295 296 298
330 328 325 325 320 316 311 305 306 303 297 299 299 295 296 295 296 297 297 296 295 294 294 293 293 292 292 292 292 292 293 295 297
331 329 327 324 320 316 313 305 306 306 301 297 297 297 296 293 293 295 295 295 295 294 293 292 292 291 291 290 291 293 294 295 297
329 328 327 323 318 315 310 305 304 305 304 302 296 295 294 294 292 292 292 294 294 294 293 292 291 290 289 289 289 291 292 294 295

GFSFLT1_925_thetae_030.txt.gz
Theta_e
330 330 330 331 331 330 328 324 323 325 329 329 329 328 329 330 329 328 330 332 334 332 332 334 335 335 332 333 333 333 333 332 328
330 327 327 331 332 331 328 328 329 331 331 329 328 328 329 329 329 329 330 331 332 330 333 331 334 334 334 334 334 334 334 335 335
329 325 327 331 332 332 333 332 331 329 326 324 323 325 326 329 330 330 328 327 329 330 329 330 333 332 332 332 331 332 332 333 334
332 326 327 330 331 331 331 333 328 325 320 320 321 321 321 323 324 322 320 321 325 326 325 332 331 329 328 328 327 327 327 328 329
331 329 329 329 331 332 333 329 324 316 314 316 315 315 318 318 317 314 312 318 323 327 331 330 328 326 325 324 324 324 324 325 325
333 329 331 325 332 331 329 326 319 316 313 311 311 311 311 310 310 310 316 329 330 330 328 327 325 323 321 321 321 321 321 321 321
333 331 331 326 331 329 328 323 319 318 315 312 308 307 307 308 310 314 326 328 327 325 324 323 322 320 318 318 318 317 317 317 317
334 333 332 329 328 329 326 318 316 314 310 307 306 305 306 309 317 324 324 323 322 320 319 318 316 315 315 314 314 314 314 313 313
335 334 332 330 326 328 325 317 314 310 307 305 304 304 305 309 310 323 323 321 319 317 315 314 313 313 313 313 312 313 312 312 312
335 333 331 329 326 328 320 316 312 308 306 304 303 303 306 311 310 316 321 318 316 314 312 311 311 311 311 311 311 311 311 311 311
332 332 330 330 325 326 321 318 310 308 305 303 302 303 306 309 309 312 314 313 311 309 309 308 308 309 309 309 310 309 309 309 310
327 329 330 329 324 325 320 313 309 307 304 302 302 302 304 307 308 308 308 306 305 306 307 305 305 307 306 307 307 307 306 307 308
327 328 329 328 326 326 319 312 309 305 302 302 301 301 303 305 306 304 302 301 301 301 301 299 301 302 303 304 304 304 304 305 306
326 325 328 328 327 326 319 311 307 303 301 300 300 300 301 304 305 302 301 300 299 299 297 296 296 297 299 300 301 302 303 304 303
324 326 327 327 327 321 312 310 306 302 300 299 300 301 300 303 304 302 300 300 299 297 296 295 295 295 296 296 299 300 300 301 301
327 328 327 326 326 321 314 307 303 300 300 300 300 301 300 301 302 302 300 299 298 297 296 295 295 295 294 294 294 298 298 299 300
330 330 326 324 325 315 310 309 302 301 300 300 299 297 298 299 299 299 299 299 297 296 295 295 294 294 293 293 293 292 297 297 298
332 331 328 326 326 323 318 312 307 303 299 300 300 295 297 296 296 298 298 297 296 295 294 294 293 293 292 291 291 292 294 296 298
333 332 327 327 324 322 319 314 309 305 302 297 298 298 298 294 293 294 295 295 294 294 294 293 292 291 291 290 290 291 293 296 297
332 330 327 325 324 322 321 314 307 306 305 302 296 295 295 294 292 292 292 293 294 294 293 292 291 290 290 289 288 290 292 293 294

GFSFLT1_925_thetae_033.txt.gz
Theta_e
331 331 331 330 331 331 328 325 324 328 331 332 329 328 329 329 328 329 331 333 333 332 334 334 334 334 334 335 333 335 334 333 329
331 330 330 331 331 330 330 331 331 331 330 327 327 328 329 329 328 329 330 331 331 332 331 334 334 335 334 334 334 335 335 335 335
331 330 331 332 332 332 332 331 331 328 325 324 325 327 328 329 329 329 326 327 329 329 328 333 332 331 330 330 330 330 331 332 333
330 331 331 332 332 332 332 332 328 323 321 321 322 323 324 325 325 323 319 323 325 326 331 331 329 328 327 326 326 326 326 327 329
330 325 329 331 331 331 334 328 323 315 316 316 316 318 319 319 317 314 313 322 326 331 330 329 327 325 324 323 323 323 323 323 323
330 329 327 329 332 333 330 326 319 315 312 311 311 311 311 311 311 311 325 331 331 330 327 326 324 323 321 320 320 320 320 320 320
333 329 330 326 333 329 328 324 319 318 314 311 309 308 308 309 310 319 327 329 327 325 324 322 321 319 318 318 317 317 317 316 316
334 333 331 327 329 328 327 321 317 315 312 307 306 306 307 311 318 326 326 325 323 321 319 318 317 316 316 315 315 314 314 314 314
332 334 331 330 325 327 327 320 316 313 308 306 305 304 306 310 322 324 323 321 320 317 316 315 315 314 314 313 314 313 313 312 313
332 334 333 330 326 327 327 319 315 310 309 306 304 303 307 311 318 321 321 319 317 315 313 312 313 312 312 312 312 311 311 312 312
334 334 333 331 327 325 325 318 314 310 308 305 303 303 308 310 311 317 317 316 313 312 311 310 310 311 310 311 310 309 309 310 310
331 334 333 330 329 325 324 319 313 309 307 303 302 303 307 309 310 312 312 310 308 309 308 307 308 307 308 308 308 307 307 308 308
328 329 330 329 329 325 323 318 311 308 305 302 302 302 305 307 308 307 306 304 304 305 304 303 303 304 304 304 304 304 305 305 306
329 328 327 329 329 325 324 315 310 308 304 301 301 301 303 306 306 303 302 301 300 300 298 297 296 298 301 302 302 303 303 304 304
326 328 327 327 329 325 323 314 308 306 302 300 299 300 300 304 305 302 301 300 299 299 297 296 296 296 296 296 297 301 302 301 302
326 325 327 325 328 326 325 310 307 303 300 299 300 300 300 301 304 302 301 300 299 298 297 296 296 295 295 295 294 295 300 300 300
332 325 324 325 327 325 321 312 306 302 300 301 301 303 300 299 301 302 301 299 299 297 296 295 295 295 294 293 293 292 295 299 300
334 328 323 326 326 325 324 316 313 305 300 301 303 302 306 300 297 298 298 298 298 297 295 295 294 294 293 292 292 294 294 298 299
334 332 325 327 326 324 326 323 314 310 303 299 300 299 300 304 301 295 296 297 296 295 294 294 293 293 292 291 290 290 291 295 297
332 333 329 328 328 323 323 321 310 310 307 302 297 296 296 296 299 300 296 293 294 294 293 293 292 292 291 290 289 289 291 293 294

GFSFLT1_925_thetae_036.txt.gz
Theta_e
332 333 331 331 332 331 330 326 326 330 332 331 328 329 329 330 330 332 333 335 332 334 333 335 335 334 336 335 334 335 334 335 331
332 331 329 330 330 330 329 331 332 329 329 328 327 329 329 331 331 332 331 332 333 332 333 335 334 334 333 333 334 334 334 335 336
332 332 332 332 332 333 333 332 330 327 326 325 327 328 329 331 332 330 328 327 329 328 333 332 331 331 330 329 330 330 331 331 331
331 332 332 332 332 332 333 332 327 323 321 321 323 325 327 327 326 323 323 323 326 326 332 330 329 328 326 325 325 325 326 326 328
328 329 330 332 330 331 334 328 322 316 317 318 319 320 320 321 319 317 318 323 327 331 330 329 327 325 324 323 323 322 323 323 323
330 330 328 331 330 334 331 326 318 314 313 313 313 314 316 315 315 317 325 332 331 329 328 326 324 323 321 321 320 320 320 320 320
331 330 325 330 334 332 329 325 318 316 313 312 311 313 314 316 317 321 328 329 328 326 324 323 321 320 319 318 318 317 317 316 316
333 332 331 330 332 331 327 323 317 315 312 311 311 312 315 317 320 325 328 327 325 322 320 319 318 317 316 317 316 315 315 315 315
335 334 332 331 330 330 326 320 314 312 309 309 311 312 314 317 321 325 325 323 321 318 317 317 316 315 315 315 314 313 313 314 314
335 335 334 333 330 328 325 319 314 311 308 308 310 312 313 315 319 321 322 321 319 316 315 315 314 313 313 313 312 312 312 313 313
334 334 334 334 332 328 324 319 314 311 309 308 309 311 313 314 316 318 319 318 315 314 312 312 312 312 312 312 310 309 310 310 311
333 334 334 334 332 328 323 317 312 310 308 308 308 310 312 313 313 314 314 313 311 311 310 310 311 309 309 309 308 307 307 308 308
332 333 334 333 331 328 322 317 313 311 309 307 306 309 311 311 311 311 310 310 308 309 306 307 306 306 306 306 305 305 305 305 306
329 331 332 332 330 325 321 316 314 311 308 306 305 306 308 310 309 308 307 307 306 306 303 300 299 301 302 303 304 304 303 303 304
331 329 330 330 330 325 320 316 312 311 309 304 303 303 305 308 308 306 305 304 303 304 302 298 299 297 297 297 297 301 303 303 302
332 330 329 329 328 326 320 316 310 307 306 305 304 303 302 304 306 305 304 303 302 301 299 298 298 297 296 296 295 295 298 302 302
333 331 329 328 327 326 321 314 310 307 304 308 308 308 304 302 304 305 304 302 301 299 298 298 297 297 296 296 294 293 294 299 301
333 332 330 328 325 324 321 314 313 308 304 307 310 310 311 306 302 302 303 302 300 299 298 297 296 295 295 295 295 293 293 297 300
333 332 330 327 323 323 321 317 319 313 307 303 304 304 307 308 305 300 301 300 300 299 298 296 295 294 295 294 294 292 291 294 297
332 331 330 327 323 322 320 317 314 313 311 307 301 300 299 301 306 307 301 299 298 298 298 296 295 294 293 293 293 290 290 294 295

GFSFLT1_925_thetae_039.txt.gz
Theta_e
333 334 334 333 333 331 329 325 327 329 332 329 328 329 328 331 331 333 334 332 335 333 335 336 335 336 336 336 336 335 336 335 332
333 331 331 331 332 328 325 330 329 329 329 327 328 329 330 332 331 331 331 332 332 332 335 334 333 333 334 334 333 334 335 335 335
332 328 329 329 326 327 333 332 328 327 326 326 327 328 330 331 331 329 328 327 329 329 333 331 331 330 330 329 329 329 331 332 332
328 331 330 332 332 333 333 330 326 323 322 322 324 326 328 327 326 322 324 321 326 331 332 331 329 326 326 326 325 325 326 327 328
328 327 330 332 331 332 333 327 323 319 319 320 321 321 320 321 320 318 321 320 328 331 330 329 327 325 324 323 322 322 322 323 323
327 331 330 332 330 334 332 326 318 315 315 315 315 316 317 316 316 320 328 332 332 330 327 326 324 323 322 321 320 320 320 320 320
330 331 328 331 331 334 331 326 318 317 316 315 313 315 315 317 317 326 330 330 329 327 325 323 322 320 319 318 318 317 317 317 316
332 332 328 332 333 333 330 326 321 319 317 316 314 314 316 317 319 326 328 328 326 323 322 320 319 318 318 317 316 316 316 315 315
333 332 331 329 332 332 330 325 320 317 315 313 314 314 316 318 324 327 327 325 323 320 319 318 317 317 316 315 314 314 315 315 315
334 333 332 332 331 330 329 325 319 316 313 312 313 313 314 316 321 324 323 322 320 318 317 317 316 315 315 313 313 313 313 313 314
335 335 334 333 332 330 328 325 320 316 313 312 312 313 314 315 318 322 320 320 318 316 315 315 314 314 314 312 310 310 311 311 311
333 333 334 334 332 331 328 325 319 316 313 312 312 312 314 314 316 318 318 316 315 313 313 313 313 312 311 310 308 307 308 308 308
332 333 334 333 333 333 330 325 318 315 313 313 311 312 313 313 313 314 315 313 311 311 310 311 309 309 308 307 306 306 306 305 305
331 332 333 332 333 332 330 324 318 317 314 313 310 310 311 312 312 312 311 311 309 309 307 307 305 306 305 305 305 305 304 304 304
333 331 332 332 333 331 329 324 320 318 315 312 309 307 308 310 311 309 309 308 307 307 305 302 299 299 300 299 299 300 303 304 303
335 333 331 331 331 331 329 324 319 317 315 309 307 307 306 307 310 309 307 306 305 305 305 301 300 299 297 297 296 296 296 302 303
337 335 333 331 331 331 329 324 320 315 312 310 312 312 307 304 305 308 307 305 304 303 302 300 300 299 298 297 297 295 295 297 301
337 336 334 332 331 331 329 325 320 316 311 313 314 317 316 307 304 306 306 305 304 302 301 300 299 298 298 297 296 295 294 294 300
337 335 335 333 331 331 329 326 320 316 312 309 311 311 310 312 307 304 305 305 303 302 300 299 298 297 297 297 298 298 295 293 297
332 334 334 333 332 331 328 326 319 317 316 312 309 308 305 306 308 306 302 303 303 302 301 299 298 296 296 296 295 294 292 292 296

GFSFLT1_925_thetae_042.txt.gz
Theta_e
336 336 335 335 333 331 326 322 325 328 328 328 328 328 331 331 332 332 331 330 333 335 335 336 337 337 336 336 335 336 338 334 333
334 332 332 332 332 328 327 329 326 328 327 326 328 328 331 331 331 331 330 328 331 334 334 334 332 332 333 333 333 333 335 336 335
331 331 330 331 329 332 333 328 325 325 325 326 327 328 331 330 330 327 325 326 327 332 332 331 329 328 329 328 329 330 331 331 331
328 326 328 327 331 333 331 327 325 323 322 323 325 329 325 326 324 324 323 320 327 332 331 330 328 327 326 325 325 326 327 328 328
328 327 329 329 330 333 331 326 322 320 320 321 322 320 321 319 317 317 319 322 332 332 330 328 327 325 324 323 322 322 323 323 323
324 329 331 333 331 332 332 325 319 316 317 317 316 317 317 316 316 322 326 331 333 330 327 326 324 323 321 321 320 320 320 319 320
328 329 330 332 331 333 332 326 318 317 317 317 314 315 315 317 319 323 330 330 330 327 325 323 322 320 319 318 318 318 317 317 317
331 330 328 329 330 332 332 328 321 318 317 316 314 314 315 317 319 324 328 329 327 324 322 320 319 319 318 317 316 316 316 316 316
332 332 330 325 330 332 332 327 322 320 317 315 314 313 316 318 325 325 327 327 325 322 320 319 318 318 316 315 315 315 315 315 314
333 332 332 330 331 331 332 328 323 318 315 313 313 313 315 317 326 325 326 325 322 320 319 318 317 317 315 314 314 314 314 314 313
334 333 333 332 332 330 330 328 323 318 315 312 313 313 314 315 321 323 324 323 320 319 317 317 316 316 315 312 312 312 312 312 312
335 333 334 333 331 332 330 328 324 319 315 313 312 312 313 315 317 321 320 321 319 316 315 315 315 315 314 312 310 309 309 309 308
333 334 334 334 333 332 332 328 324 319 315 313 312 312 313 314 315 318 319 317 317 314 313 314 314 312 312 310 308 307 306 305 303
333 333 333 334 333 332 331 330 326 319 315 313 312 311 312 313 313 314 315 314 312 311 311 311 310 310 308 308 307 306 304 304 304
333 332 332 333 333 331 331 331 326 320 316 314 312 310 310 312 312 312 312 312 311 310 309 307 307 306 306 306 305 304 304 304 304
335 334 332 332 333 332 332 331 326 321 318 314 310 308 308 309 311 311 310 310 309 308 308 306 304 301 300 300 298 297 298 301 304
337 335 334 332 332 333 332 330 326 322 318 312 307 306 307 306 307 310 309 308 307 306 306 305 302 300 300 298 297 296 296 298 301
339 337 335 334 332 331 332 331 326 320 317 314 312 311 310 304 305 306 309 307 306 305 305 304 302 300 299 299 298 297 296 296 300
334 337 337 336 334 331 331 330 327 321 315 312 313 315 312 306 303 304 305 307 306 305 303 303 301 300 299 298 298 297 296 295 296
335 333 335 335 334 333 331 331 328 323 316 313 311 312 311 308 305 301 303 306 306 304 303 302 301 299 298 297 297 297 297 295 294

GFSFLT1_925_thetae_045.txt.gz
Theta_e
339 338 338 336 333 329 324 326 327 326 327 325 330 330 331 332 331 330 329 328 336 336 336 337 335 336 335 336 336 336 334 334 335
335 335 334 333 331 325 321 323 325 325 326 326 330 331 330 330 330 330 327 330 335 335 334 334 331 332 332 333 333 333 334 335 335
331 331 331 331 329 327 324 323 324 324 325 326 329 330 329 329 328 326 321 325 332 332 331 330 329 329 329 329 330 331 331 331 332
330 328 329 329 330 332 327 325 323 322 322 324 327 325 326 326 322 324 320 323 332 332 330 329 328 327 325 326 326 326 327 328 328
327 326 325 327 332 332 328 324 321 320 321 322 325 322 321 317 318 317 317 326 333 332 328 328 326 325 323 323 322 323 323 323 325
323 326 331 331 332 332 329 323 318 318 318 318 317 318 317 316 316 321 321 333 332 329 327 326 324 323 321 321 320 320 320 320 320
322 328 330 332 331 331 331 324 317 317 317 316 315 315 315 316 316 320 331 331 331 327 326 324 322 320 319 319 319 318 318 319 319
328 327 330 331 331 330 332 327 320 317 317 316 314 314 315 317 318 324 329 330 329 326 323 321 321 320 318 317 317 317 318 316 316
331 330 329 327 328 329 331 330 324 319 317 316 314 313 314 317 320 323 324 327 327 323 321 320 320 319 317 316 316 316 317 315 315
331 331 331 330 323 328 330 330 324 320 318 316 313 313 315 316 324 324 326 326 325 323 321 319 319 318 316 315 316 315 315 314 314
332 333 332 331 330 330 331 332 327 323 319 316 312 313 314 315 324 326 325 325 324 322 321 319 318 318 316 315 314 314 314 313 312
333 333 332 332 330 331 331 331 328 323 319 315 312 313 313 314 318 323 323 324 323 320 320 318 318 318 315 313 312 312 311 310 310
333 334 334 332 332 331 331 330 328 326 320 315 313 312 312 313 315 320 321 320 320 319 317 317 317 316 316 313 311 310 309 308 307
333 333 334 334 334 333 332 331 330 326 320 315 313 312 312 313 314 315 319 319 317 317 315 314 315 314 314 312 310 309 307 307 306
334 332 332 333 333 333 333 331 331 329 323 317 314 313 311 312 313 313 314 316 315 313 312 311 313 311 312 310 310 309 306 305 305
335 334 333 332 332 333 333 332 331 330 326 317 314 312 310 310 311 312 312 313 313 312 311 309 309 309 308 309 308 307 306 305 305
336 335 334 333 332 332 333 332 331 329 324 316 307 305 307 308 309 311 311 311 311 311 310 309 308 307 305 304 305 304 304 304 305
330 332 334 334 332 331 332 332 331 326 322 319 313 307 308 305 307 307 309 310 310 310 309 308 307 306 304 300 300 298 300 302 304
334 333 331 332 334 333 331 331 331 328 321 316 315 315 313 306 306 305 306 308 309 308 308 307 306 305 302 300 299 298 297 300 303
334 334 333 332 332 332 333 332 329 328 324 318 315 311 312 308 304 305 304 304 307 308 306 306 305 304 302 300 299 298 298 299 301

GFSFLT1_925_thetae_048.txt.gz
Theta_e
339 339 338 335 331 326 327 326 325 324 323 329 330 330 331 331 330 329 327 333 336 336 336 336 336 336 336 337 337 335 335 336 336
339 337 335 333 331 322 320 324 325 325 326 329 330 330 331 330 329 329 325 335 336 336 335 334 332 332 332 333 333 334 334 335 337
337 334 333 332 329 321 322 323 323 324 325 329 330 330 330 329 328 324 319 331 333 330 331 329 329 329 330 330 331 331 331 331 333
333 331 330 330 327 323 323 323 323 323 324 327 329 328 327 326 324 323 319 328 332 330 328 329 328 327 327 326 326 326 327 328 329
331 331 331 330 332 326 324 323 321 320 322 325 328 324 323 322 319 317 317 329 333 330 327 328 326 325 324 323 323 323 324 325 326
323 325 326 330 333 330 326 323 320 319 320 322 325 320 318 316 316 319 318 334 334 329 327 327 325 323 322 321 321 321 322 322 322
320 322 326 329 332 332 329 323 317 317 317 317 318 317 316 315 316 317 327 334 332 328 326 325 323 321 320 320 320 320 320 320 320
322 325 329 330 330 329 331 327 318 317 317 316 314 314 314 316 317 322 332 332 330 328 326 322 321 320 319 319 318 319 318 317 317
328 325 328 328 328 329 330 330 325 318 317 316 314 314 314 315 319 322 328 330 329 327 323 321 321 319 318 318 317 318 316 316 317
331 330 329 329 328 326 327 330 329 325 319 317 316 314 313 315 318 322 324 324 326 325 323 321 321 319 318 317 317 317 316 315 315
332 331 331 331 330 326 323 328 330 325 321 318 317 314 313 314 316 323 325 326 325 324 323 322 320 319 317 317 316 316 315 315 314
333 332 331 332 331 331 329 330 331 331 326 320 318 313 313 313 314 322 326 326 325 324 323 322 320 319 318 317 316 315 315 314 313
335 332 332 332 332 331 330 330 330 331 327 321 319 315 312 313 313 317 324 324 324 323 321 322 320 319 318 316 314 314 312 311 311
333 333 332 333 332 332 330 331 331 329 327 321 319 316 313 312 312 314 319 322 322 321 319 319 318 318 319 317 314 313 311 310 308
333 333 333 333 334 333 332 331 331 331 330 326 321 315 313 312 312 313 314 318 320 319 318 317 316 316 316 317 315 312 311 309 308
334 333 333 332 332 333 333 333 332 331 330 322 316 316 313 312 311 312 313 314 316 318 316 314 314 314 313 314 313 312 311 308 307
335 335 334 333 332 332 332 332 332 332 330 321 311 311 313 313 313 311 311 312 313 315 315 313 312 311 312 310 311 311 311 309 308
336 335 334 334 333 331 332 332 331 329 327 324 320 306 311 306 310 310 310 310 311 312 314 313 311 310 309 309 308 308 308 307 307
335 335 334 333 331 332 332 331 331 330 327 322 319 317 311 308 311 308 307 306 308 310 310 311 311 310 309 308 306 305 303 304 305
321 330 334 332 330 330 332 332 330 330 328 324 321 315 313 309 307 309 308 307 307 306 309 309 309 309 308 307 305 302 300 302 304

GFSFLT1_925_thetae_051.txt.gz
Theta_e
342 340 336 332 329 317 323 323 322 327 328 330 330 329 330 330 329 325 331 335 337 337 336 336 334 335 336 336 335 336 336 336 333
339 338 337 332 330 317 322 324 323 323 329 329 330 330 331 329 328 327 330 335 336 334 333 334 332 332 332 334 334 334 333 335 336
339 337 334 333 329 320 321 323 324 325 328 329 329 330 331 329 328 322 326 332 334 331 331 330 328 329 330 331 331 331 331 332 335
336 336 334 333 331 326 323 324 323 324 326 329 329 329 329 328 325 322 319 329 331 329 328 328 328 327 327 327 327 327 328 329 330
333 333 331 333 332 328 325 324 323 323 324 327 325 326 325 323 322 319 317 329 334 328 327 327 326 325 324 324 324 324 325 326 327
323 325 328 330 331 327 325 323 321 320 321 324 326 321 319 317 317 317 318 332 333 328 327 326 325 323 322 322 322 322 323 323 324
322 324 324 325 331 330 327 323 319 318 319 320 322 319 317 316 316 317 321 333 331 329 326 326 323 321 321 321 320 321 321 321 321
321 322 325 326 330 331 331 328 321 316 317 317 316 316 315 314 316 318 327 334 332 329 327 324 322 321 320 320 319 320 319 319 319
319 321 324 327 328 329 327 330 327 320 317 317 316 313 313 314 316 318 327 332 332 329 327 323 322 320 319 319 319 318 317 317 318
325 326 324 326 328 328 327 327 329 328 323 318 317 316 315 313 314 318 324 328 329 328 325 323 322 320 319 319 318 318 317 317 317
332 330 330 330 329 329 329 324 325 328 327 323 320 317 316 313 313 316 322 325 326 326 325 324 323 321 319 318 318 318 317 316 316
334 332 331 331 331 331 330 327 325 329 330 326 322 319 318 314 313 314 318 323 325 326 325 325 323 322 320 319 318 317 316 315 315
335 335 334 332 331 331 331 329 329 330 330 331 328 323 318 315 313 313 314 321 325 325 324 323 324 322 321 319 318 316 316 315 314
334 334 334 333 331 331 331 331 330 330 330 330 329 326 320 317 315 313 312 315 321 324 323 322 321 321 321 319 318 316 315 313 312
333 333 333 333 332 331 332 331 331 330 330 329 329 327 323 317 315 314 312 312 315 320 322 321 320 320 319 320 319 317 315 313 311
333 333 333 332 332 332 332 332 331 330 329 326 325 326 324 319 317 315 313 312 312 315 319 320 319 318 317 317 318 318 315 313 312
337 336 336 334 332 332 331 331 331 331 331 324 314 315 318 321 320 317 313 312 312 312 315 318 318 316 315 315 315 317 315 314 311
338 337 336 335 334 333 333 331 330 329 329 327 324 313 314 309 319 319 315 313 311 311 312 314 317 316 314 313 313 313 313 314 313
332 334 335 335 335 334 333 331 331 330 328 325 324 324 318 314 314 315 313 310 309 310 310 310 312 315 314 312 311 311 310 311 311
316 318 320 326 333 334 331 330 330 330 329 327 324 320 315 312 310 320 315 314 313 312 309 308 309 310 313 312 311 310 309 309 308

GFSFLT1_925_thetae_054.txt.gz
Theta_e
342 339 334 330 319 324 326 327 328 329 330 330 329 329 329 328 325 327 334 336 337 336 336 335 333 334 336 337 337 335 336 336 324
340 337 332 332 323 323 325 324 325 328 329 329 329 330 329 328 327 325 333 335 334 333 333 333 332 332 333 333 333 333 334 335 332
338 337 334 332 327 322 325 325 325 327 329 329 329 330 330 328 327 322 327 332 332 331 330 330 329 329 329 330 331 330 330 332 333
336 336 334 333 330 328 325 324 324 325 327 328 328 329 329 328 324 321 320 326 331 329 327 327 327 327 326 326 327 327 327 328 330
334 335 333 332 329 325 324 324 324 324 325 327 326 327 326 324 322 319 317 326 333 328 326 326 326 324 323 324 323 324 324 325 326
330 330 328 329 328 325 323 322 321 320 321 324 327 323 322 318 317 316 318 327 334 328 326 323 324 322 321 322 322 323 323 323 324
323 325 327 329 330 329 326 323 320 319 319 321 324 325 319 316 315 316 318 328 335 330 327 325 323 320 321 321 321 321 321 322 322
319 321 323 323 328 331 329 327 322 317 317 317 317 317 316 314 314 316 318 329 335 331 329 327 322 319 320 320 320 320 320 320 320
321 320 321 324 326 327 328 328 329 323 317 317 317 316 313 313 314 315 318 328 334 330 329 325 320 320 320 320 319 319 318 318 318
325 320 321 323 326 327 327 327 327 328 327 323 318 317 316 315 314 313 317 323 328 330 329 325 324 322 320 320 319 319 317 317 318
331 328 327 327 327 328 329 328 328 326 327 327 326 321 319 316 315 313 314 319 325 328 328 326 325 324 321 320 319 319 317 317 317
333 332 332 330 330 330 330 330 329 327 325 328 329 326 323 320 318 314 313 315 320 324 326 327 326 324 323 321 320 318 318 317 316
333 333 334 334 332 331 330 330 330 330 328 328 329 330 329 326 321 316 313 313 315 319 323 325 326 325 323 322 320 319 318 317 316
333 334 334 334 334 333 331 330 330 331 330 329 330 330 330 329 326 322 316 314 313 315 319 323 323 323 324 322 321 320 318 317 315
333 333 333 333 334 333 332 331 330 330 331 329 329 329 329 329 327 324 322 318 316 313 315 321 323 322 321 322 322 320 319 317 315
336 332 332 332 332 332 332 331 331 330 330 327 327 328 328 327 329 328 322 317 314 313 313 316 321 322 320 320 320 320 319 318 316
337 337 337 335 332 332 332 330 330 330 330 328 319 321 324 326 326 325 323 320 316 313 312 312 317 321 320 318 318 318 319 319 317
337 337 337 336 336 334 334 332 330 329 329 328 327 317 319 313 322 323 321 319 317 315 311 310 311 315 319 318 317 316 315 317 317
323 329 331 333 334 335 334 334 332 330 328 327 326 325 320 318 319 319 320 320 322 319 318 314 310 310 312 316 317 315 315 315 314
312 313 316 318 321 323 329 333 332 330 329 327 326 324 319 316 313 321 319 319 318 319 315 315 314 311 309 310 314 314 313 313 314

GFSFLT1_925_thetae_057.txt.gz
Theta_e
339 337 331 321 323 328 327 328 329 330 329 328 328 328 327 326 325 333 335 338 337 336 335 334 333 335 336 337 335 336 335 329 324
338 336 331 325 325 327 325 327 328 328 329 329 329 329 328 327 324 329 333 335 332 330 331 332 331 331 332 333 334 333 335 335 333
337 335 333 330 324 329 328 325 326 328 329 329 329 330 329 327 322 322 327 329 330 329 329 329 329 329 329 328 330 330 330 332 334
336 336 333 332 323 325 325 325 325 327 328 328 328 329 329 327 323 320 318 325 331 328 327 327 327 324 324 325 326 327 327 328 329
335 335 333 331 324 323 323 323 323 323 324 327 327 327 326 323 320 317 317 328 331 328 327 323 323 320 322 323 324 324 324 325 326
334 334 331 328 326 325 324 323 322 321 322 323 327 324 322 319 316 315 316 324 334 330 327 326 323 317 318 322 322 323 323 323 323
323 325 326 328 329 327 325 323 321 319 319 320 322 325 322 317 315 315 316 324 333 332 329 328 324 316 317 318 321 321 322 322 322
320 323 325 327 327 330 328 326 323 318 317 317 317 317 317 315 314 314 316 323 335 332 330 327 324 317 316 318 318 320 320 320 320
323 319 320 321 323 326 328 328 328 327 321 317 316 316 316 314 314 314 315 318 332 332 329 326 324 320 319 320 319 319 316 318 319
330 322 319 321 324 325 326 327 327 326 328 327 325 321 318 318 315 315 314 316 325 328 329 329 325 323 322 321 319 319 317 318 318
332 330 325 322 323 325 328 329 329 329 326 325 326 327 324 321 318 317 315 314 318 324 328 329 327 325 324 322 320 320 318 317 318
333 332 331 331 329 329 329 329 329 330 329 328 327 328 329 328 325 322 319 314 314 317 323 328 328 326 324 323 321 320 318 318 317
331 332 332 332 332 332 331 330 330 330 330 330 330 329 329 329 329 328 324 320 316 314 317 320 327 327 326 324 323 321 320 318 317
332 332 333 333 333 333 333 333 332 330 330 330 331 330 330 330 330 330 329 325 321 317 315 316 320 324 326 325 323 323 321 319 318
333 333 333 333 333 333 333 333 332 331 330 329 329 330 331 330 330 330 330 328 322 318 315 314 318 321 323 324 324 323 322 321 318
335 335 335 333 332 332 332 331 331 330 330 327 328 329 329 330 330 329 328 328 325 322 315 313 314 318 323 323 323 323 322 321 320
336 336 336 336 335 335 333 331 329 329 330 329 323 328 326 326 326 326 326 325 323 321 318 314 312 312 316 321 321 321 322 321 322
336 336 336 336 336 335 335 334 331 329 329 329 328 324 326 319 325 324 323 322 323 323 319 318 315 312 311 313 319 320 319 320 320
318 323 329 334 333 333 333 334 333 330 328 327 327 326 324 322 322 322 322 322 321 321 319 317 316 315 313 311 312 317 318 317 319
312 312 313 315 317 321 326 327 331 330 329 326 325 325 321 320 317 321 322 320 321 320 320 318 317 315 314 312 310 309 310 315 318

GFSFLT1_925_thetae_060.txt.gz
Theta_e
337 331 322 329 332 333 332 329 328 328 328 328 328 326 326 329 333 335 336 336 336 335 333 332 333 334 334 335 336 336 333 327 327
336 332 326 328 330 328 329 329 328 329 329 329 329 327 327 328 329 331 332 334 332 330 330 332 329 326 329 332 333 334 335 335 334
336 333 332 325 330 328 325 326 327 328 328 328 329 329 328 327 326 327 328 328 331 329 329 328 326 324 324 324 327 330 331 333 334
335 334 333 327 326 326 325 324 324 326 328 327 328 328 327 327 324 322 324 329 331 329 324 322 322 321 323 324 325 325 326 328 330
335 335 333 330 323 324 324 324 324 324 325 327 326 327 325 324 323 322 321 330 333 329 327 326 323 315 318 322 324 324 324 324 325
335 335 332 330 326 324 324 324 322 322 322 323 326 325 322 321 320 319 317 322 333 333 328 328 325 315 315 317 322 323 323 323 323
331 332 329 327 328 326 325 323 321 321 323 323 322 323 322 319 319 320 316 320 330 336 329 328 325 318 315 316 319 322 323 322 322
328 329 329 331 329 332 330 330 327 324 320 319 319 318 318 317 317 317 315 317 328 335 331 329 324 321 317 316 316 320 319 319 318
329 327 328 330 329 331 332 331 331 329 326 320 319 318 318 318 317 318 315 315 324 333 332 328 326 323 321 320 319 318 316 318 318
332 329 326 326 328 329 330 331 330 330 328 327 325 324 322 321 319 318 317 315 316 329 332 331 328 326 324 322 321 320 317 318 318
334 332 330 327 327 329 331 333 333 332 332 330 329 329 328 326 322 320 320 320 315 316 324 330 330 327 326 324 322 321 320 318 318
333 333 332 332 330 330 331 332 332 333 333 332 332 331 330 329 326 323 322 322 322 317 315 321 329 328 326 326 324 322 320 319 318
335 334 334 334 333 333 333 333 333 333 333 333 333 332 332 331 330 329 326 325 323 323 321 315 320 328 328 327 326 325 322 320 319
335 335 335 335 335 334 334 334 334 334 334 334 333 332 332 332 331 330 329 327 323 323 323 322 317 320 324 327 327 326 324 322 320
335 336 336 335 335 335 335 335 335 334 334 334 332 332 332 332 331 330 330 329 325 322 322 322 323 320 320 324 326 326 325 324 322
335 336 336 336 336 336 335 335 335 334 334 332 332 332 331 330 329 328 328 326 324 323 322 321 321 321 321 319 323 325 325 324 324
336 336 337 337 336 336 335 335 334 333 333 332 332 332 328 327 326 326 325 323 322 320 319 319 318 319 320 321 321 323 324 323 323
335 335 336 335 335 335 336 335 334 332 332 330 332 332 329 326 325 324 321 320 319 318 316 317 318 317 317 317 318 317 321 322 323
324 325 329 332 332 331 331 330 330 330 330 329 328 328 327 327 326 324 323 319 319 317 320 320 316 315 315 313 311 311 313 317 320
312 312 313 317 321 320 322 325 326 325 327 328 326 325 324 323 323 324 324 322 321 320 317 316 314 313 312 312 311 312 311 309 313

GFSFLT1_925_thetae_063.txt.gz
Theta_e
332 327 331 333 334 334 334 332 330 329 329 328 325 326 328 332 334 335 335 333 334 333 333 332 331 332 333 334 335 336 336 335 335
333 325 328 330 332 333 333 330 328 328 328 328 327 326 326 328 329 331 332 332 331 331 330 327 325 327 327 329 332 333 335 335 334
334 331 325 330 329 327 327 326 327 328 327 328 328 326 328 326 326 327 330 331 331 327 322 320 315 319 322 323 326 329 331 331 333
335 333 329 325 327 326 324 324 325 327 327 327 327 327 325 326 324 322 328 330 332 328 325 326 322 312 314 323 325 324 325 327 329
335 333 332 326 323 323 323 323 323 323 324 326 326 325 324 324 323 322 318 329 333 330 329 328 325 315 312 319 324 324 324 324 324
334 337 333 329 324 324 323 323 321 321 321 322 323 324 324 322 321 321 318 321 331 333 330 329 326 319 314 314 322 324 324 324 324
333 334 331 328 327 324 324 323 321 320 325 325 321 324 323 321 320 320 318 317 327 333 333 329 325 322 317 314 318 322 322 322 322
327 331 329 331 327 332 329 329 329 326 323 321 321 320 320 319 319 319 317 315 321 333 333 331 326 323 320 318 317 319 317 317 317
329 328 329 331 331 331 333 332 331 331 329 324 322 321 321 321 320 319 318 316 315 332 332 331 328 325 323 321 320 319 316 317 318
333 330 326 327 327 329 330 331 330 331 330 329 328 326 325 324 323 321 320 320 316 317 332 333 330 328 325 323 322 320 319 317 319
335 333 331 327 327 328 329 332 334 334 333 333 331 330 330 330 328 325 323 323 323 318 317 327 331 330 326 325 323 322 321 319 318
334 334 333 333 331 330 331 332 333 334 334 334 334 333 332 332 331 328 326 325 324 325 322 316 324 330 329 327 326 324 322 320 319
336 335 335 335 335 334 334 334 334 334 334 334 333 333 333 333 333 332 331 329 327 326 325 325 318 322 329 329 328 327 325 322 321
336 337 336 336 336 336 336 335 335 335 335 334 334 334 334 334 334 333 332 332 330 327 326 324 324 321 318 326 328 328 327 325 322
336 337 337 337 337 336 336 336 336 335 335 334 335 334 334 333 333 332 331 330 330 329 325 324 324 324 322 318 325 327 327 326 325
337 337 337 336 336 336 336 336 334 334 335 334 334 334 333 333 331 330 328 328 327 325 325 324 323 323 322 321 321 324 326 326 326
337 337 337 336 336 336 336 335 335 334 334 334 333 333 331 329 328 327 327 326 325 323 321 321 321 320 320 321 321 321 324 325 325
337 337 336 335 336 335 335 335 334 334 333 332 332 333 331 328 326 326 325 323 322 321 319 319 319 319 318 319 318 318 318 320 323
327 328 331 332 333 333 333 332 331 331 332 331 331 329 329 328 328 325 325 324 320 320 319 318 317 316 316 315 314 313 312 311 313
315 314 316 317 320 323 323 325 325 325 326 327 328 326 326 326 326 326 324 325 322 320 320 317 316 314 314 313 312 312 312 312 312

GFSFLT1_925_thetae_066.txt.gz
Theta_e
331 333 333 333 334 334 331 328 327 328 325 324 327 328 331 332 335 334 332 330 332 332 331 326 326 325 329 333 334 336 336 335 335
321 327 327 329 328 327 327 327 327 327 328 326 323 326 327 328 330 330 328 328 330 327 323 322 322 321 323 325 331 333 334 335 335
328 325 329 327 327 326 326 326 327 326 327 326 325 327 327 325 324 326 328 327 330 328 326 323 318 319 322 325 326 327 329 331 332
332 326 324 327 324 322 322 324 325 326 326 325 325 323 325 324 322 325 324 329 330 329 328 327 321 315 310 319 325 325 326 326 328
333 331 326 321 322 322 322 322 322 322 323 324 324 323 324 323 322 322 319 326 333 331 330 328 323 317 312 314 321 324 324 324 325
333 336 331 325 321 321 321 321 320 320 321 320 320 323 323 322 320 321 321 317 329 333 332 330 326 320 317 314 319 322 323 323 324
335 335 332 326 323 321 322 321 320 323 324 324 322 323 323 321 320 319 320 315 322 333 331 331 328 322 319 317 318 319 318 318 317
332 330 325 323 324 323 329 328 328 326 324 321 321 320 320 319 319 318 319 317 315 325 332 331 329 325 322 320 318 315 314 314 313
327 330 330 331 333 332 333 332 332 330 330 327 323 321 321 321 321 320 319 319 317 318 328 330 329 327 324 322 321 318 315 315 315
332 329 327 329 329 329 330 331 330 330 330 329 328 327 326 325 324 323 322 321 322 319 324 332 331 329 327 324 322 321 320 317 316
335 333 329 326 326 327 328 329 332 333 333 333 332 331 330 330 329 328 325 324 324 324 320 322 332 331 329 326 324 323 321 320 318
335 334 333 332 330 328 329 331 332 333 333 333 333 333 333 332 332 331 330 328 326 325 325 324 321 330 331 330 328 326 323 322 321
335 334 333 334 334 333 332 332 333 333 333 334 333 333 333 333 333 333 332 332 330 328 326 326 325 324 329 330 330 329 327 324 322
335 336 335 335 335 335 335 335 335 335 334 333 333 333 333 334 334 334 333 332 332 331 329 328 325 323 323 326 329 329 328 327 325
336 336 336 337 336 335 335 335 335 334 335 334 334 333 333 334 333 333 333 332 330 329 328 327 325 324 324 323 323 326 328 327 326
336 336 337 336 335 335 335 335 334 333 332 333 334 333 333 333 333 332 332 329 328 327 326 324 324 323 323 322 321 322 326 327 326
337 337 337 335 336 335 335 335 335 334 333 333 332 330 329 329 328 330 329 327 327 324 323 321 321 320 320 319 320 320 321 325 326
337 336 336 335 335 335 335 335 335 334 333 332 331 330 328 326 326 327 326 325 323 322 320 320 319 319 319 318 318 318 318 318 318
337 336 335 334 333 332 332 331 331 331 331 331 331 330 330 328 325 324 325 325 323 320 320 319 317 316 315 315 315 315 313 313 312
320 319 317 318 319 321 324 324 325 324 325 324 324 326 325 324 326 324 322 324 324 323 320 318 315 314 314 313 313 311 312 312 312

GFSFLT1_925_thetae_069.txt.gz
Theta_e
333 334 334 334 334 333 328 326 324 322 323 328 329 330 331 334 332 332 322 328 331 329 324 322 324 326 329 333 334 336 336 336 335
330 331 332 333 333 329 327 326 326 324 322 324 326 327 328 328 327 327 320 326 331 329 325 323 324 325 326 329 331 331 333 333 333
322 325 329 330 327 326 326 326 325 325 324 323 326 326 324 323 324 326 324 325 329 329 326 322 322 323 326 326 326 328 329 330 331
320 325 324 323 323 323 324 324 324 324 324 323 324 325 324 322 322 322 318 329 330 329 329 326 321 319 320 324 326 326 325 326 328
328 322 322 323 321 321 321 321 321 321 322 322 322 324 323 322 321 321 320 321 331 331 331 329 322 319 315 320 324 325 325 325 326
329 327 324 320 320 321 320 320 319 319 322 320 320 323 322 320 320 320 320 316 325 332 331 330 328 321 318 316 318 321 322 322 324
333 333 330 324 319 320 320 320 319 324 323 323 322 323 322 321 320 319 319 318 316 328 332 331 329 324 320 319 317 314 316 318 319
334 331 326 324 321 318 328 327 326 325 324 321 320 320 320 319 319 318 318 318 317 317 327 331 330 326 323 321 319 315 314 316 315
327 328 329 329 331 329 332 332 331 330 329 328 325 322 321 321 321 320 320 320 320 319 321 327 329 328 325 324 321 319 316 314 314
328 328 329 329 330 329 330 331 330 330 330 329 328 328 328 327 326 324 322 322 322 322 321 332 331 330 327 325 323 321 320 318 315
331 330 327 326 327 328 328 329 329 331 332 332 332 332 330 330 330 330 329 327 326 325 324 322 331 333 330 328 325 324 323 322 320
335 333 332 329 326 326 327 328 330 332 333 333 333 333 333 333 332 331 331 330 330 329 328 326 324 328 331 331 331 328 325 323 322
335 334 333 332 332 331 330 330 330 332 333 333 333 333 333 332 332 332 332 332 332 331 330 328 327 325 326 330 330 329 329 327 324
335 334 334 333 334 334 334 334 334 334 334 332 332 332 333 332 333 333 333 333 332 330 327 328 328 326 324 324 327 329 328 327 327
336 335 336 335 335 334 334 333 333 333 332 333 331 331 331 332 332 333 333 333 332 330 328 327 327 325 324 323 323 324 327 327 326
337 336 336 335 334 334 333 333 334 334 332 332 333 332 331 330 329 328 331 333 329 327 326 325 323 323 323 322 321 321 324 327 327
336 336 336 336 334 334 334 334 333 332 330 331 332 329 328 328 328 327 328 330 326 324 323 322 321 321 320 320 320 320 320 320 320
337 337 336 335 335 334 333 333 332 333 331 331 331 328 327 326 326 327 327 325 324 323 322 320 319 319 319 318 318 318 318 317 317
336 336 336 335 334 333 333 332 331 331 329 330 329 331 330 327 325 324 324 324 324 323 321 320 320 318 316 316 315 315 315 313 314
337 335 334 330 328 326 323 323 324 325 325 325 325 323 323 324 323 321 322 321 323 322 320 319 317 316 315 314 313 312 312 312 313

GFSFLT1_925_thetae_072.txt.gz
Theta_e
336 336 332 332 333 328 324 321 328 330 328 329 331 334 334 331 328 318 323 328 329 326 325 325 326 327 332 334 333 333 335 335 336
335 334 334 334 333 327 325 321 321 326 327 328 327 327 328 325 326 319 323 330 332 329 326 325 326 327 327 329 331 331 331 331 333
333 333 334 333 333 328 325 324 323 321 323 325 325 324 323 322 324 321 323 326 332 329 324 322 322 324 326 326 327 328 329 329 330
331 332 332 331 326 326 325 324 323 323 322 325 325 324 322 322 322 320 321 328 330 329 329 325 320 319 322 325 325 325 326 327 328
324 324 323 322 322 322 322 322 322 322 322 321 324 323 322 322 321 320 319 321 329 330 331 330 324 319 317 319 323 325 325 325 326
323 320 322 322 321 321 321 320 319 319 319 320 322 322 322 320 320 320 319 317 320 329 330 329 328 322 319 318 318 320 322 323 324
328 327 324 320 320 320 320 319 319 322 323 322 323 323 322 321 320 319 318 318 317 322 331 330 329 325 321 319 318 316 317 318 319
333 332 327 324 321 320 320 321 321 323 323 321 320 320 319 319 319 318 318 319 318 317 326 330 329 327 324 322 320 317 315 315 315
333 330 327 321 321 320 330 330 329 329 329 328 326 324 322 321 322 321 321 320 320 320 321 324 327 328 327 324 323 320 318 315 314
327 327 329 329 330 329 331 330 331 330 329 329 329 328 328 328 328 327 325 323 323 323 323 330 331 330 329 327 324 324 322 320 317
327 328 328 328 328 328 328 329 330 329 330 331 331 331 331 331 330 330 330 329 329 328 327 325 328 332 331 330 327 326 325 323 321
334 330 329 326 326 326 327 327 328 330 332 332 332 332 332 333 332 332 331 331 330 330 330 329 327 327 328 331 330 329 327 325 324
335 333 332 331 328 327 326 327 329 330 331 332 333 333 332 331 330 331 331 332 332 332 329 330 327 327 327 329 330 329 328 328 326
335 334 333 333 332 332 331 332 332 333 333 333 331 331 331 331 331 330 331 332 333 332 331 329 328 326 326 324 326 328 328 327 326
336 334 334 333 333 334 334 332 332 332 332 332 330 330 329 329 329 331 331 331 332 332 330 329 327 326 324 323 323 323 324 326 326
337 336 335 335 335 334 333 333 333 333 331 331 330 329 329 330 328 329 329 329 330 331 328 327 325 323 323 323 322 321 321 321 322
336 336 336 335 335 334 334 334 334 333 330 330 330 326 327 328 328 328 328 327 328 326 324 324 322 321 321 321 320 320 320 319 319
336 336 336 335 335 334 334 332 332 332 331 329 331 327 325 324 326 326 326 325 324 323 322 321 320 320 319 319 319 318 318 317 317
336 337 336 335 335 334 334 333 332 331 330 330 329 329 330 327 325 324 324 323 322 321 319 318 318 318 318 317 316 315 314 314 316
336 336 336 335 334 334 333 333 327 324 324 324 324 323 322 322 323 323 321 321 321 321 319 317 317 316 315 314 313 313 312 312 313

GFSFLT1_925_thetae_075.txt.gz
Theta_e
337 336 334 333 325 322 332 333 330 331 333 334 334 333 330 325 317 320 325 328 329 328 326 326 327 329 331 331 331 331 332 332 333
335 334 329 328 322 321 328 331 329 328 329 329 330 329 326 324 320 321 326 331 331 328 326 326 327 327 328 329 330 330 329 330 331
335 333 334 333 325 322 321 323 326 326 326 325 325 323 322 323 320 321 324 330 333 330 325 321 323 325 326 326 326 327 329 329 328
334 335 333 333 326 324 323 322 321 322 324 325 324 322 321 322 321 320 322 328 331 330 330 328 320 319 321 324 325 326 327 327 327
331 331 330 326 324 324 323 323 323 322 322 324 324 322 322 321 320 320 319 320 327 328 328 328 327 320 318 318 320 324 323 325 326
323 323 322 322 321 321 322 321 321 321 322 322 323 322 321 320 319 319 319 317 321 326 327 328 328 324 320 319 318 316 317 321 323
321 321 321 321 321 320 320 320 319 321 321 320 322 323 322 320 319 319 318 318 319 321 329 327 329 327 323 321 320 317 318 317 318
328 327 324 321 321 320 321 320 319 322 322 321 320 320 319 319 319 318 318 319 319 320 323 326 327 327 326 323 322 319 316 315 314
332 332 328 325 322 320 321 322 323 326 328 327 325 324 324 322 322 322 321 321 320 320 322 327 325 327 327 327 324 322 320 318 315
333 331 328 326 323 323 327 330 330 330 329 329 329 328 328 328 327 328 328 326 324 324 323 327 330 331 330 330 327 324 324 322 321
328 327 327 328 328 329 329 329 330 329 329 330 330 330 331 331 331 331 331 330 329 328 328 327 328 329 331 331 329 328 327 325 323
330 327 327 327 327 327 328 327 327 328 330 332 332 332 332 332 332 331 331 331 330 330 330 327 328 327 327 329 331 329 328 327 326
332 332 330 329 326 325 325 326 327 328 330 330 332 333 332 331 330 329 329 329 329 331 331 330 328 326 327 328 330 330 328 327 328
334 334 333 332 331 329 328 327 329 331 332 332 331 330 330 329 329 329 329 329 330 331 332 331 330 327 326 326 325 327 328 327 326
335 335 334 333 332 332 332 332 332 332 332 331 331 329 330 329 328 329 329 329 329 330 332 331 330 326 326 324 323 323 324 324 323
336 335 334 334 333 333 334 333 332 332 332 332 330 328 328 328 327 327 328 328 329 328 329 330 327 326 324 323 323 322 321 321 321
336 336 335 334 335 335 334 333 333 333 333 332 330 325 327 327 327 327 327 327 326 328 327 327 325 323 321 321 320 320 319 319 319
336 336 336 335 335 335 333 333 333 332 331 331 329 327 323 323 327 325 325 325 325 323 323 323 321 321 320 319 319 318 317 316 318
336 335 335 334 334 334 334 333 332 331 331 330 330 329 328 327 323 323 323 323 322 321 321 319 319 318 318 318 317 315 314 314 316
335 335 333 332 330 331 330 332 331 332 330 326 323 323 322 322 322 321 320 321 321 320 319 318 317 316 316 315 314 313 312 312 314

GFSFLT1_925_thetae_078.txt.gz
Theta_e
338 337 335 334 334 335 334 331 332 334 334 333 332 329 323 316 319 323 327 328 330 328 328 328 329 330 331 331 331 329 330 330 331
337 334 334 332 331 334 332 329 331 331 332 332 329 325 324 319 321 324 328 331 331 328 325 326 327 328 328 329 329 330 330 328 328
334 332 333 330 328 332 331 329 328 328 327 327 325 323 323 320 320 324 326 332 333 329 328 322 323 325 326 326 327 327 328 328 328
334 333 333 327 321 322 325 326 325 326 325 324 323 321 322 321 320 320 322 328 333 330 327 327 322 322 321 324 324 324 326 326 327
332 331 332 326 323 323 323 322 322 323 325 324 323 321 321 321 320 319 319 322 329 327 327 327 326 321 319 319 321 322 323 324 325
333 330 330 325 325 324 323 323 322 322 321 322 322 322 321 320 319 319 318 318 327 328 326 327 327 325 321 320 319 317 317 318 321
326 326 324 323 322 322 321 321 320 320 320 320 321 322 321 320 319 319 318 318 321 325 328 325 326 326 325 323 322 319 316 315 314
324 324 323 322 321 321 320 320 319 321 322 321 321 320 319 319 319 319 319 319 319 322 323 327 327 325 326 326 323 322 318 316 314
326 325 324 322 320 320 320 320 320 322 325 325 324 323 324 324 323 324 323 322 321 321 323 325 327 327 328 328 327 324 323 321 318
330 331 329 327 324 321 319 324 327 328 328 328 328 328 328 328 328 328 329 329 328 325 325 327 329 331 330 330 329 327 325 324 322
332 331 329 327 325 325 324 329 329 329 329 329 330 330 331 331 331 331 331 331 330 329 328 326 328 329 329 328 329 328 327 326 326
329 329 327 327 327 328 328 328 327 328 328 330 331 331 331 331 331 331 329 328 329 329 330 329 328 328 327 327 327 329 328 327 326
329 330 329 327 327 327 327 327 326 326 327 329 330 332 332 330 329 328 328 328 328 327 329 330 331 329 327 327 328 328 328 327 326
330 331 333 330 329 327 325 325 325 327 330 331 332 330 329 329 329 328 328 328 329 329 329 331 331 330 327 326 326 327 325 326 324
332 332 333 333 331 330 329 329 329 331 332 331 330 329 329 329 328 328 327 327 327 328 328 328 331 329 326 326 325 323 324 323 322
336 333 333 333 332 332 332 332 332 331 330 330 330 329 328 328 327 327 327 326 326 328 328 327 330 328 326 326 322 322 322 321 320
337 335 335 334 333 332 332 333 333 331 331 332 329 324 325 325 326 326 325 325 325 326 326 327 326 325 324 321 321 321 320 319 319
334 335 334 334 333 334 334 334 332 333 330 330 330 324 322 322 326 325 324 324 324 324 324 325 323 322 321 320 319 319 318 317 319
333 333 333 333 333 334 332 332 332 331 331 330 330 330 328 326 321 322 322 323 322 321 321 320 320 320 319 318 318 316 315 315 317
332 332 333 332 331 329 329 329 330 330 329 329 328 324 323 322 321 317 317 319 319 320 319 317 317 317 317 316 315 313 313 313 314

GFSFLT1_925_thetae_081.txt.gz
Theta_e
338 336 335 335 338 338 333 333 335 335 335 332 327 319 318 318 323 328 329 330 330 329 329 329 329 330 330 331 331 330 329 329 330
338 334 334 335 336 335 331 333 334 334 333 329 324 322 318 320 323 327 332 332 332 330 328 329 329 328 328 328 328 329 329 329 328
336 333 333 335 336 333 330 330 329 329 330 328 323 323 320 320 322 326 333 333 333 330 327 325 326 326 326 326 327 327 327 328 328
335 333 333 334 335 333 330 328 327 326 324 323 321 321 322 320 320 321 326 331 333 329 327 326 323 321 322 324 323 324 326 327 327
333 334 334 332 328 328 327 325 324 325 324 323 322 321 321 321 320 319 320 325 330 325 326 326 326 322 320 320 319 319 322 324 326
333 333 333 329 324 324 324 324 324 323 323 323 322 321 321 320 319 318 318 319 329 329 326 325 326 325 323 321 321 318 318 319 320
330 330 329 326 325 324 323 323 322 322 321 320 321 322 321 319 319 318 318 318 322 326 326 326 326 325 325 325 323 320 317 316 314
328 327 325 324 323 322 321 320 319 319 320 321 320 320 319 319 320 320 320 319 320 323 324 326 327 326 326 327 326 323 321 320 316
324 324 323 322 322 321 320 320 319 321 322 323 322 322 324 325 325 326 326 325 323 322 325 327 331 328 329 329 328 327 324 323 322
324 323 324 323 321 320 320 320 321 323 327 328 328 328 328 329 329 329 329 329 329 328 327 326 330 330 330 329 327 327 327 326 326
328 329 330 328 325 322 320 324 328 329 329 328 329 330 330 331 331 331 331 330 330 330 329 328 328 330 331 328 329 327 328 327 326
332 332 330 328 327 325 326 327 329 328 328 328 330 331 330 331 331 330 330 328 328 327 328 329 329 330 330 330 327 327 326 326 327
330 329 329 327 327 327 328 328 327 326 326 328 329 330 331 330 329 329 328 328 327 328 328 328 329 330 331 330 328 327 327 326 325
328 329 330 329 327 326 326 326 326 325 327 329 331 331 330 329 329 329 328 328 328 328 328 328 330 331 330 328 328 326 325 325 324
327 330 331 330 329 329 326 325 325 327 331 331 331 329 329 329 328 328 327 327 326 326 327 328 328 329 330 327 325 325 323 323 322
332 333 332 331 332 331 329 329 328 329 330 330 330 330 328 328 328 326 326 325 323 325 327 328 326 328 329 326 325 323 323 322 320
334 334 333 332 333 332 331 330 331 332 331 331 329 330 328 325 326 325 325 324 324 325 325 324 325 326 326 326 323 321 320 320 320
333 334 333 332 332 332 332 331 332 332 332 330 329 328 329 325 325 324 323 323 323 323 323 323 324 324 324 322 320 319 319 318 320
333 333 332 331 331 331 331 332 331 330 331 329 329 328 328 328 327 321 321 321 321 321 321 320 321 321 320 319 318 317 317 316 319
331 332 331 331 331 329 326 326 327 327 329 329 328 327 326 323 322 320 319 318 318 317 319 319 317 317 317 316 316 315 314 317 317

GFSFLT1_925_thetae_084.txt.gz
Theta_e
338 336 336 337 336 336 336 336 336 335 331 326 317 318 320 329 330 331 331 331 331 331 330 330 330 330 330 330 331 328 329 330 330
337 335 336 337 336 336 336 336 335 333 330 325 319 318 324 329 331 332 333 333 332 330 330 330 330 329 329 328 329 329 329 328 327
336 336 335 337 337 336 334 334 334 333 329 323 322 319 322 327 330 332 332 333 333 331 329 328 328 328 328 327 327 327 328 328 328
335 336 337 337 337 334 331 330 328 328 327 322 321 322 321 326 327 328 331 331 333 330 328 327 325 323 322 322 324 325 327 327 327
334 334 335 336 335 332 329 327 326 324 323 322 321 321 321 325 325 326 327 326 331 326 326 326 325 323 321 321 320 319 322 324 325
333 333 333 334 333 330 327 325 324 324 324 323 321 321 323 323 324 323 318 321 331 329 326 325 326 325 324 323 322 318 316 316 314
332 333 333 329 326 325 325 324 322 322 325 323 322 324 323 322 322 322 318 319 323 328 326 327 326 326 326 325 323 321 320 318 315
332 332 332 331 326 328 327 326 325 324 323 324 323 324 322 322 321 320 320 319 320 326 326 327 328 327 327 328 327 325 323 322 319
331 331 331 330 328 328 327 326 325 324 324 324 323 322 323 324 324 325 326 325 323 323 326 327 329 330 328 328 328 327 326 324 324
330 329 329 328 328 326 326 325 324 324 325 328 328 328 329 329 328 329 329 329 329 329 326 327 328 330 329 329 328 326 326 326 326
328 327 328 328 327 326 325 324 325 326 329 330 330 330 331 331 331 331 331 330 330 330 329 328 327 329 332 332 330 327 327 326 327
331 330 332 331 330 328 326 324 329 331 330 330 330 331 332 331 332 332 331 331 329 328 328 327 328 328 330 331 329 327 326 325 326
334 334 334 333 330 329 329 329 330 329 329 329 331 331 332 332 331 331 331 330 330 330 329 328 328 328 329 330 329 328 327 324 324
334 332 332 333 330 329 329 330 329 328 328 329 331 332 332 331 331 330 330 330 330 330 329 328 328 328 329 330 329 329 326 324 323
335 331 332 332 331 329 329 328 328 328 329 331 331 332 331 331 331 330 329 329 329 327 327 329 330 329 328 330 329 327 326 323 323
333 330 332 332 332 331 330 329 328 329 331 333 330 330 331 330 329 328 326 326 325 326 327 329 329 329 327 329 327 325 325 322 322
333 332 332 332 331 333 331 329 330 331 332 331 332 330 329 327 326 327 326 325 324 325 324 325 326 327 328 328 324 324 322 322 321
333 333 332 332 329 333 333 332 332 333 332 330 330 330 329 327 326 326 325 323 323 324 323 322 322 323 323 324 322 320 319 320 322
332 330 331 332 332 330 331 331 332 332 331 330 329 331 329 328 325 323 322 322 319 320 321 320 319 320 320 320 319 318 318 318 320
330 332 331 328 330 330 331 330 329 329 328 327 327 328 330 328 327 320 318 319 319 319 318 318 317 316 317 317 317 316 316 318 318

GFSFLT1_925_thetae_087.txt.gz
Theta_e
340 337 336 336 336 337 335 336 336 335 327 318 318 320 330 331 331 332 332 332 332 331 331 331 330 329 329 330 330 330 330 330 331
338 336 337 336 335 335 336 336 336 330 324 316 317 325 329 331 333 333 334 333 332 331 331 331 330 329 329 328 328 328 328 329 329
336 336 336 335 335 336 337 335 333 329 323 320 318 321 328 329 332 333 333 332 333 331 330 329 329 329 329 328 328 328 328 328 328
336 336 336 335 337 336 335 335 334 330 323 322 321 321 327 327 329 331 333 331 332 330 328 326 325 323 322 321 322 324 327 327 326
335 335 336 335 335 333 331 329 328 326 323 320 321 320 325 326 327 328 328 326 331 326 326 326 325 324 322 322 320 317 317 321 324
333 334 335 335 334 331 329 327 325 324 323 322 321 321 325 325 325 325 320 323 333 327 326 325 326 325 325 323 322 318 317 316 313
332 334 334 335 334 331 328 325 323 323 326 323 321 324 325 323 324 323 319 319 325 329 326 327 327 326 326 326 325 323 322 320 316
334 334 333 333 328 328 326 323 324 325 325 325 324 325 324 323 323 321 319 319 321 326 327 328 329 328 327 327 327 326 324 323 321
333 332 331 331 327 329 329 328 326 325 325 324 324 324 323 324 324 325 325 324 323 323 327 328 329 330 329 328 328 326 325 325 326
331 331 330 330 329 329 329 327 326 325 324 325 326 325 327 328 328 329 328 329 329 328 327 327 329 331 330 329 328 326 326 326 325
331 330 330 329 328 327 326 326 325 324 325 327 329 330 331 331 331 331 331 330 329 329 329 329 328 329 332 331 331 329 327 326 326
328 327 328 328 328 327 326 325 324 326 328 330 329 330 331 332 331 331 332 332 331 329 328 327 327 327 328 331 333 329 327 325 325
331 329 331 332 331 330 327 326 325 329 330 330 329 331 332 332 332 332 331 330 330 330 330 330 329 328 328 328 330 329 327 326 324
334 334 334 334 332 330 329 329 329 329 329 328 329 331 332 332 331 330 329 329 330 330 330 329 328 327 328 328 329 329 328 326 323
337 334 332 333 333 331 330 330 330 329 328 328 329 332 332 332 330 330 329 329 328 327 326 328 329 329 329 328 328 329 327 326 323
337 335 331 332 334 333 331 330 329 329 329 331 331 331 331 330 330 329 328 325 326 324 327 328 329 329 329 328 328 328 326 325 322
333 334 332 333 334 334 333 331 330 330 330 333 332 334 331 329 328 326 327 325 323 324 325 324 325 326 328 328 326 325 326 323 321
333 333 333 333 333 332 333 333 331 331 332 333 332 332 331 328 326 327 326 324 322 323 323 322 323 323 324 324 324 323 321 321 323
330 332 333 332 331 331 331 331 333 332 333 332 331 330 330 329 328 326 323 323 320 319 320 320 320 320 321 321 320 320 318 319 322
328 329 331 332 331 331 330 330 331 330 331 329 328 326 325 327 327 325 321 320 319 320 319 318 318 318 318 319 319 317 317 318 319

GFSFLT1_925_thetae_090.txt.gz
Theta_e
341 336 335 337 336 336 336 335 333 325 321 319 320 329 331 331 331 330 330 329 332 332 331 330 329 329 328 329 329 329 329 329 330
339 337 336 335 336 335 334 335 332 323 316 317 327 330 331 332 333 333 329 331 332 331 330 330 330 329 328 328 328 328 329 329 328
336 335 335 335 335 335 336 336 329 323 316 317 324 329 330 332 333 333 326 331 332 331 326 325 326 326 323 323 327 327 327 326 327
336 335 335 335 335 338 336 335 330 324 321 318 319 327 328 329 331 332 326 329 332 329 326 325 323 322 322 321 318 319 325 324 326
335 335 335 334 335 336 335 335 331 324 321 320 319 325 326 327 327 330 328 325 329 325 325 325 325 325 323 322 319 318 317 316 316
334 335 334 334 335 333 331 329 327 324 321 320 320 321 325 325 326 326 320 324 329 325 325 325 325 325 326 324 323 321 320 317 315
334 334 334 334 334 331 329 326 324 323 322 321 320 324 324 323 324 324 321 320 326 328 326 327 327 326 326 327 326 324 323 322 318
333 333 334 334 334 331 329 325 322 323 326 325 322 324 324 322 322 322 321 320 322 326 327 328 329 328 327 327 326 325 324 324 323
334 332 331 333 332 328 324 322 321 325 325 325 324 324 324 322 323 323 324 323 322 324 327 328 329 330 329 328 327 325 324 324 325
334 332 330 329 325 328 328 329 327 326 325 324 324 324 323 326 326 327 328 328 328 328 328 328 329 330 331 330 329 328 325 325 325
332 332 330 331 329 329 329 328 326 325 324 325 326 327 328 330 330 330 330 330 329 328 328 328 328 328 330 332 330 330 329 327 324
332 331 330 330 329 328 327 326 325 325 324 325 328 329 330 331 331 331 331 331 331 330 328 328 328 327 327 328 333 330 329 327 324
330 328 329 328 327 327 327 326 324 324 327 329 330 329 330 332 332 331 331 331 330 330 330 330 329 328 327 327 330 329 328 326 325
328 328 327 330 331 330 329 327 326 325 329 330 329 329 331 331 331 331 330 329 330 329 330 328 327 327 327 326 327 329 328 327 325
332 333 333 334 333 331 330 329 329 328 329 328 328 329 331 332 331 330 329 329 328 328 326 326 328 329 329 328 327 327 328 327 325
334 334 333 332 333 333 330 330 329 330 329 329 328 329 330 331 331 329 329 326 325 325 325 327 328 327 328 327 327 328 328 326 324
335 335 335 331 331 334 333 331 330 329 329 328 331 329 330 330 330 328 326 326 323 323 325 324 324 325 327 327 326 326 328 325 322
334 333 334 332 333 334 334 333 333 331 330 328 331 329 327 327 327 326 326 325 322 322 323 322 322 323 323 323 324 325 325 324 325
332 332 332 332 332 332 332 332 332 331 332 331 331 330 328 326 326 326 326 323 321 319 320 320 320 319 320 321 321 321 320 319 322
328 329 330 330 331 331 330 330 330 329 330 329 329 328 326 323 324 322 319 322 320 319 320 319 318 318 318 318 318 318 317 318 320

GFSFLT1_925_thetae_093.txt.gz
Theta_e
341 339 342 339 335 334 333 335 333 328 323 321 328 330 330 330 330 329 325 329 332 332 330 329 330 329 328 328 328 330 330 329 330
339 338 339 337 335 334 334 333 324 320 318 326 330 331 332 332 333 328 326 331 332 331 331 330 329 328 328 329 329 329 329 328 328
336 334 335 335 336 335 335 333 324 316 317 328 330 331 332 333 333 328 324 331 332 330 326 323 324 323 323 325 326 327 327 327 328
336 335 335 335 334 334 335 331 324 316 317 323 329 329 331 332 332 330 322 330 332 328 325 324 324 323 322 320 319 321 323 325 326
335 333 334 334 335 336 335 330 325 321 318 318 326 326 327 328 328 331 325 325 326 324 325 325 325 325 323 322 319 319 319 316 315
334 334 333 334 336 336 334 334 326 321 320 319 321 325 326 325 326 326 321 323 325 324 325 325 325 325 326 325 324 322 321 319 316
333 333 333 333 334 335 332 329 326 322 320 320 319 323 324 325 325 324 322 321 326 326 325 327 327 326 326 326 325 324 323 322 320
334 334 332 333 333 332 329 326 323 322 323 323 320 324 324 323 323 323 321 319 323 325 327 328 328 328 327 327 326 324 324 324 324
333 334 333 332 333 331 328 325 322 321 326 326 324 324 324 322 322 323 323 322 322 324 327 328 328 329 329 328 328 326 324 324 324
333 333 333 333 333 330 328 322 320 323 325 324 324 324 324 323 323 324 325 327 327 327 328 328 329 329 329 329 330 329 327 325 324
332 332 332 331 332 327 326 327 328 326 325 324 324 324 324 325 326 327 329 329 329 328 328 328 327 328 330 333 332 329 329 329 326
333 332 328 325 326 326 329 328 327 325 325 324 324 327 327 329 330 330 330 330 331 330 328 328 328 328 327 327 333 332 329 328 326
332 331 330 330 330 328 327 327 325 325 325 324 325 328 329 329 330 331 330 331 331 329 330 329 329 329 327 326 331 333 329 328 326
331 331 330 329 329 328 327 325 325 324 325 327 329 329 329 330 331 331 331 331 330 330 330 329 327 326 327 328 327 328 328 328 326
331 330 329 329 327 328 328 327 327 325 324 328 329 329 328 329 331 331 330 329 328 328 327 326 325 328 329 328 327 327 327 328 326
329 328 327 329 330 331 330 329 328 328 328 329 328 328 328 331 330 331 329 328 327 326 324 324 327 328 327 328 326 327 330 328 326
330 332 333 333 333 333 331 329 329 329 329 329 328 327 329 330 330 330 328 326 325 324 323 324 323 324 325 326 325 325 328 328 325
332 332 333 332 331 332 333 331 330 330 329 329 330 329 329 327 329 328 326 325 323 322 324 323 322 320 321 321 321 326 327 327 325
330 331 332 334 331 332 333 333 333 332 330 330 329 330 327 326 325 324 324 324 323 321 321 320 320 319 318 319 320 321 323 323 323
327 328 329 330 330 331 331 333 331 330 331 330 329 329 329 327 323 324 320 321 321 319 319 319 318 318 318 317 317 318 318 318 321

GFSFLT1_925_thetae_096.txt.gz
Theta_e
341 342 342 341 340 337 336 337 334 330 326 328 330 330 329 329 327 322 327 330 332 331 330 330 330 330 330 331 330 329 329 330 330
338 342 342 338 336 335 335 335 329 325 323 329 330 330 331 331 327 323 326 331 332 332 331 331 330 330 330 330 330 328 329 329 329
337 341 338 335 333 332 336 325 320 319 325 330 331 332 332 332 329 322 325 330 332 331 329 329 326 327 326 328 328 328 328 328 328
336 338 337 336 335 334 334 324 317 317 327 329 330 331 332 332 330 322 323 329 332 328 325 324 323 323 321 320 319 319 324 326 327
334 334 334 334 335 332 333 325 317 316 325 329 328 328 330 330 329 328 322 326 330 325 325 325 325 325 323 321 321 320 319 317 315
336 334 333 334 332 335 334 326 321 317 317 322 326 326 326 326 327 325 320 324 325 324 325 325 325 325 325 324 323 322 321 319 318
334 333 332 333 336 335 334 329 323 320 319 319 325 325 325 325 326 324 322 322 325 324 325 327 326 326 325 325 324 323 323 322 321
334 333 333 333 334 334 334 332 327 321 319 319 319 323 323 324 324 323 322 320 324 326 326 328 328 327 327 326 326 324 323 323 324
334 333 333 333 333 334 332 328 323 322 321 322 320 323 324 322 322 322 321 321 321 324 327 328 328 328 328 328 328 327 325 324 323
333 333 333 332 333 333 330 327 323 321 325 325 324 323 324 323 322 322 323 326 325 324 327 328 329 328 327 329 330 329 328 326 324
333 334 334 332 332 332 329 326 322 320 324 325 324 324 324 323 323 324 325 328 329 327 328 328 328 329 331 333 332 331 329 329 328
330 333 333 333 333 332 330 325 324 324 325 325 324 324 324 324 324 328 327 329 329 330 328 327 327 328 328 332 333 332 330 329 329
328 330 330 333 333 330 330 327 327 327 326 324 323 324 327 327 329 330 330 330 330 330 329 329 329 329 328 328 332 333 332 330 327
333 332 332 331 330 327 326 329 329 326 325 324 324 324 327 328 329 330 330 330 330 330 329 329 329 328 326 327 328 331 331 328 328
333 332 332 329 326 329 327 327 326 325 324 324 326 328 329 329 329 331 331 330 330 330 329 329 327 326 326 328 328 327 327 327 328
331 332 331 331 330 328 327 327 326 325 325 324 326 328 328 328 328 330 330 330 329 329 328 325 324 325 327 327 327 326 329 329 328
331 330 330 329 328 327 327 327 327 326 326 326 327 326 327 327 329 330 330 329 328 326 325 324 322 322 322 324 325 324 326 329 327
329 329 330 328 327 327 329 329 329 328 328 328 328 328 328 326 328 330 329 328 325 325 324 323 323 322 320 320 320 320 326 328 327
329 329 329 328 329 332 332 331 330 329 328 327 328 329 328 324 325 324 323 323 323 323 323 323 322 320 319 318 317 320 324 323 324
328 329 329 329 332 331 331 331 330 329 329 329 328 328 327 326 324 324 321 320 318 321 321 321 320 319 318 317 316 316 319 321 321

GFSFLT1_925_thetae_099.txt.gz
Theta_e
340 343 343 343 342 339 338 336 331 327 328 330 326 326 328 325 320 323 326 328 332 332 332 331 331 331 331 331 330 329 330 330 329
338 342 342 341 340 338 336 334 328 326 328 330 329 329 329 327 322 323 326 332 333 332 331 331 331 331 330 330 329 329 329 329 329
340 341 341 340 338 336 334 332 329 325 328 329 330 330 331 329 322 324 326 331 333 332 331 329 331 330 329 329 328 328 328 329 328
339 338 340 335 333 336 334 327 322 322 329 329 331 331 332 330 321 322 325 330 332 329 326 326 325 323 322 321 321 321 322 327 327
340 338 336 336 335 333 332 323 319 321 329 329 329 331 331 330 328 324 324 331 332 326 325 326 326 324 322 322 322 321 319 318 320
339 337 336 335 333 334 332 323 317 320 328 328 327 328 329 328 328 325 322 326 329 325 325 325 325 325 324 323 322 322 321 319 319
336 335 334 333 334 332 333 325 318 317 322 326 326 326 325 325 326 325 321 324 328 324 325 326 326 325 325 325 323 322 322 322 322
335 334 333 332 333 334 334 329 323 319 318 319 324 325 325 324 324 324 322 322 332 326 325 327 327 327 326 326 325 324 323 322 323
335 334 333 332 334 337 334 332 326 321 319 319 319 322 323 323 323 323 322 320 326 331 327 328 328 327 327 327 327 327 326 324 323
334 334 333 332 333 335 334 333 328 323 320 320 319 321 323 323 322 322 322 322 323 323 327 329 329 328 328 329 330 329 328 328 325
335 334 333 332 333 333 334 332 327 322 321 324 324 323 323 323 323 322 322 323 326 325 326 328 329 332 332 333 333 330 330 329 328
335 333 334 333 332 333 333 331 328 325 321 324 324 324 323 323 323 322 323 324 328 328 328 327 327 328 332 333 333 333 332 329 328
334 330 331 333 331 332 331 331 329 326 321 322 324 324 323 324 323 324 327 326 329 329 329 328 328 328 329 332 332 331 331 331 330
333 328 329 325 321 331 332 332 330 325 326 327 326 324 323 324 326 327 329 329 329 329 330 329 329 328 328 328 327 328 331 329 329
331 331 325 325 325 332 333 331 330 327 327 326 324 324 323 324 327 328 328 330 330 330 330 329 329 329 327 325 327 327 327 328 328
330 331 330 330 330 330 331 331 328 326 328 324 324 325 327 328 328 328 328 330 330 330 330 329 329 327 324 326 327 326 325 328 328
329 329 331 332 331 329 327 325 325 325 325 323 325 325 326 328 328 328 328 329 330 330 329 329 326 323 323 322 322 322 322 327 329
329 329 330 329 329 329 329 328 327 325 325 325 326 326 326 325 327 327 328 329 329 328 328 326 324 322 321 319 317 318 318 324 328
328 329 329 328 329 329 329 329 327 326 326 325 326 328 327 326 325 324 326 328 327 327 325 324 323 322 321 318 317 316 321 323 325
327 329 329 328 329 328 328 327 327 327 328 327 327 327 326 325 323 324 321 321 323 323 324 324 323 321 319 318 317 315 317 322 321

GFSFLT1_925_thetae_105.txt.gz
Theta_e
343 340 342 342 341 342 340 338 332 331 331 331 327 322 319 320 323 325 326 330 332 332 332 333 333 332 331 331 331 331 330 330 330
342 339 341 341 341 340 338 336 327 325 327 327 328 325 320 320 322 324 330 333 333 333 333 333 332 331 331 331 331 330 330 329 329
342 337 340 342 341 339 338 330 326 326 327 327 327 326 323 321 322 325 330 333 333 333 332 331 331 331 330 330 330 330 329 329 329
341 337 339 341 340 339 337 331 327 328 328 328 328 329 326 320 322 324 330 331 333 332 327 328 329 329 328 324 324 326 327 327 327
340 337 338 340 340 338 335 334 327 328 328 328 329 329 328 321 322 324 329 332 333 329 326 327 326 324 323 323 322 321 319 319 319
340 339 337 339 338 337 335 331 327 327 328 329 329 329 329 327 324 322 325 330 333 330 326 326 326 325 323 322 322 321 321 321 320
339 339 337 339 336 334 333 331 328 326 330 328 329 330 329 327 327 324 322 326 334 331 325 326 325 325 324 323 322 322 321 322 321
339 339 338 338 335 334 333 329 326 324 326 328 327 328 328 327 325 325 323 323 334 333 328 326 326 326 325 325 325 324 323 322 322
338 339 339 338 336 334 334 333 324 320 323 327 326 326 325 325 323 324 324 323 327 334 333 328 327 327 327 326 326 326 326 325 324
337 337 338 337 336 334 333 333 331 322 320 323 323 324 324 324 324 323 323 323 322 328 335 334 332 330 329 328 328 327 327 327 327
335 335 337 337 335 333 332 333 332 329 322 320 319 319 319 322 322 322 322 322 322 322 326 334 334 334 333 333 331 330 330 329 329
331 333 335 335 333 332 332 332 334 333 329 325 322 319 319 319 320 322 322 321 321 322 323 324 331 334 334 334 334 332 331 331 330
329 331 334 334 334 333 332 333 335 334 333 331 326 322 321 323 323 323 323 323 321 321 323 325 326 328 331 333 331 332 331 329 327
328 329 330 333 333 333 332 333 333 332 332 332 329 325 323 321 323 323 323 323 322 323 323 325 327 327 327 328 330 330 328 325 326
327 328 330 331 333 333 332 332 332 331 330 331 330 328 327 322 321 324 323 323 323 323 326 326 327 328 328 328 328 328 326 323 325
327 328 330 331 331 332 332 330 330 327 325 329 328 327 324 323 325 325 324 323 323 326 327 328 327 328 328 328 328 328 323 325 323
326 328 328 328 329 328 328 327 327 327 327 326 325 326 325 325 325 326 324 323 323 325 327 328 329 329 329 329 328 327 322 324 326
326 327 328 329 329 329 328 326 324 325 325 323 324 326 327 325 324 324 325 324 324 324 328 327 329 330 329 329 328 325 321 320 328
327 327 327 328 328 328 328 327 326 325 324 324 324 324 324 327 327 324 324 324 325 325 328 327 329 329 329 329 328 324 320 317 319
326 326 327 327 327 327 327 327 327 327 326 325 323 323 323 325 327 330 326 324 325 325 327 327 328 328 328 328 325 322 319 316 318

GFSFLT1_925_thetae_108.txt.gz
Theta_e
343 340 340 340 342 341 341 336 330 326 327 329 326 325 322 322 328 329 328 330 330 332 332 333 333 332 332 332 332 331 331 330 330
342 339 340 341 341 341 340 335 330 328 329 331 325 320 318 328 328 329 331 333 334 333 333 333 333 332 332 332 331 331 330 330 329
342 339 339 341 341 341 339 337 328 327 328 330 328 323 320 327 328 330 332 332 334 334 333 332 332 331 331 331 331 330 330 330 329
340 340 338 340 341 340 338 333 326 327 328 329 327 325 322 327 328 330 332 331 334 333 332 331 331 331 330 329 329 329 329 328 328
339 340 337 339 340 340 339 334 326 328 329 328 328 329 324 327 328 329 331 330 334 333 329 329 327 326 324 324 324 322 323 323 323
341 341 340 337 340 339 338 335 327 327 328 328 329 329 330 328 327 328 328 328 334 333 329 328 328 325 324 323 322 322 321 321 321
339 340 339 338 339 339 337 335 330 328 330 330 330 331 331 330 329 328 325 326 334 333 329 328 327 325 324 323 322 322 322 322 321
339 339 340 339 339 339 337 337 334 332 330 329 330 331 331 330 329 329 323 324 334 334 331 327 327 326 325 325 324 324 323 322 321
338 338 339 340 339 338 338 337 334 331 330 328 328 328 328 329 328 327 325 323 325 334 334 332 329 328 327 326 326 326 326 325 324
338 338 338 339 339 337 337 337 334 330 327 325 326 327 326 326 325 325 325 324 323 326 334 334 333 332 331 329 327 326 326 327 327
339 339 339 339 338 338 337 337 336 332 325 323 323 324 324 324 324 324 324 323 323 323 323 334 335 334 334 333 331 329 329 329 328
336 338 338 338 339 336 336 335 334 334 330 325 322 321 321 321 322 323 323 324 322 322 322 322 330 334 335 335 334 332 331 330 331
334 335 335 336 336 336 337 336 333 334 333 331 327 325 323 322 322 323 323 324 324 323 321 322 323 328 334 334 334 333 331 332 329
332 333 333 333 335 335 335 335 335 334 333 332 332 329 326 324 323 323 324 324 324 324 323 321 323 325 326 331 334 334 332 331 328
331 331 332 332 332 334 334 334 333 333 333 331 331 330 330 328 325 323 323 325 325 324 324 324 324 323 326 327 328 332 333 332 326
329 330 331 329 330 331 331 332 332 331 331 330 328 328 328 328 328 326 323 324 325 325 325 325 326 327 326 327 328 328 329 331 326
329 329 330 331 329 329 328 330 330 329 330 330 328 329 326 325 325 324 323 323 319 324 325 326 327 327 327 328 328 328 328 330 328
329 329 329 330 330 328 329 330 331 329 329 329 327 328 328 324 323 324 323 323 324 324 325 325 327 328 328 329 329 329 328 328 328
329 329 329 329 330 330 330 329 329 328 326 327 326 325 324 327 325 322 325 324 325 326 326 326 327 327 328 328 329 329 328 327 323
328 329 329 329 329 330 330 329 330 328 326 324 323 324 323 323 324 326 327 325 325 325 326 326 326 326 327 328 329 328 328 327 322

GFSFLT1_925_thetae_111.txt.gz
Theta_e
343 341 339 338 342 341 342 340 334 330 333 335 333 331 328 325 330 330 330 332 329 331 330 328 333 333 333 332 332 331 331 331 331
341 341 339 337 341 341 340 339 326 325 328 330 325 322 319 330 329 329 331 334 334 334 334 333 333 332 332 332 332 331 331 330 329
342 341 339 340 341 341 340 336 327 325 326 329 326 321 319 328 329 330 333 332 334 334 333 333 332 332 332 332 331 331 330 330 329
339 340 340 339 340 340 340 338 331 328 327 328 328 324 321 328 328 330 333 328 334 334 330 329 331 331 330 328 328 329 328 329 328
339 338 340 337 339 340 340 338 329 327 328 328 327 325 322 328 329 329 332 328 335 334 329 328 328 328 326 325 324 323 324 324 325
340 341 341 339 337 339 339 338 331 328 329 329 327 328 329 328 328 328 330 328 335 334 331 330 329 327 325 324 323 322 322 322 322
336 339 339 340 338 339 339 338 335 328 332 330 329 329 331 330 328 328 329 324 334 334 333 330 329 328 325 324 323 322 322 322 321
337 338 340 339 339 338 339 338 337 334 330 330 331 332 331 330 329 329 328 323 331 334 333 330 329 328 326 325 324 324 323 322 321
336 337 338 340 340 339 339 338 338 336 331 329 329 329 331 330 329 328 328 323 323 335 335 332 328 329 328 327 327 326 325 325 324
337 337 338 339 340 340 339 338 337 336 333 331 329 328 328 328 327 327 327 326 323 324 335 335 333 330 329 329 328 327 327 326 326
336 337 337 338 339 339 339 339 337 335 332 330 328 326 327 327 326 326 326 325 323 323 323 331 335 335 334 333 332 328 327 328 328
336 337 337 338 338 339 339 339 338 337 333 327 324 323 324 324 324 324 325 324 324 323 322 322 324 334 335 335 334 332 331 330 331
334 334 335 336 335 336 336 337 336 335 334 332 327 323 322 322 322 322 323 323 324 325 323 321 322 323 329 334 335 334 333 332 330
328 330 332 333 333 334 335 335 336 335 335 334 333 329 326 324 322 322 323 324 324 325 325 324 322 322 323 328 334 335 333 331 331
326 325 326 329 331 333 333 334 334 333 333 332 332 333 331 329 326 325 323 323 324 325 325 325 324 323 321 324 326 333 333 333 331
331 323 328 329 331 331 331 332 332 333 332 333 332 332 331 330 328 327 326 324 323 325 326 325 325 325 326 325 324 327 328 329 330
330 328 325 330 331 330 330 330 331 331 331 330 330 331 329 329 329 328 328 327 324 324 325 325 325 325 326 327 327 327 328 329 331
329 330 329 328 330 330 330 329 328 330 330 329 330 330 329 328 328 327 326 326 325 324 324 324 324 324 326 327 328 328 328 328 329
328 329 329 328 328 329 329 329 329 330 330 330 330 329 328 326 328 325 326 325 325 324 324 325 325 326 326 327 326 327 328 329 328
327 326 327 327 328 328 328 329 329 330 330 329 328 328 328 327 325 326 325 326 326 326 325 326 327 327 327 328 328 328 328 329 329

GFSFLT1_925_thetae_114.txt.gz
Theta_e
341 340 336 333 343 341 340 340 338 333 330 337 335 330 325 329 330 331 331 332 323 330 332 327 333 333 333 332 332 331 331 331 330
340 342 339 334 338 341 339 340 337 326 327 331 329 325 319 329 328 328 331 331 331 334 333 333 333 333 332 332 332 331 330 330 329
340 340 339 338 336 340 340 339 332 323 325 326 322 319 320 328 329 330 333 332 334 334 333 332 332 332 332 331 331 331 330 329 329
339 339 340 338 339 340 340 339 334 323 324 326 326 322 318 328 328 330 332 333 334 334 331 330 332 331 329 328 327 328 329 327 328
338 338 338 339 338 337 339 340 338 328 326 327 327 325 321 327 329 328 331 331 331 333 329 329 330 330 326 325 324 324 324 323 324
338 336 336 337 339 336 339 339 338 328 325 327 328 326 324 325 328 328 329 331 331 334 327 327 328 328 325 324 323 322 322 322 322
338 339 339 337 338 337 337 339 338 332 326 327 328 326 326 328 328 327 329 329 330 334 328 326 327 326 325 324 323 322 322 322 321
336 336 339 340 339 339 338 338 338 336 328 330 328 326 326 330 330 328 328 328 326 334 334 328 328 327 326 324 323 323 322 322 321
337 337 338 337 338 338 338 339 338 337 334 330 330 329 328 329 331 329 329 328 324 334 335 333 329 329 328 327 325 325 324 324 324
336 335 337 338 339 339 338 338 338 337 336 332 329 329 329 330 330 329 328 328 326 321 334 335 334 331 331 331 329 326 326 325 325
336 336 337 338 337 338 339 338 338 337 337 334 331 330 328 328 328 327 327 326 325 323 322 328 335 335 334 333 332 330 326 326 326
336 335 335 336 336 337 337 337 338 337 336 333 331 330 328 326 326 326 326 325 325 324 323 322 323 333 336 335 335 333 330 328 329
333 335 335 335 335 336 335 337 337 338 337 334 330 327 324 323 324 324 324 324 324 324 324 323 321 322 326 335 335 335 333 331 330
330 334 334 334 334 333 333 334 334 334 335 334 334 331 324 323 321 322 322 322 323 323 324 324 323 321 321 325 333 335 334 333 332
329 329 330 330 330 330 330 331 331 332 333 332 333 333 331 328 325 322 321 321 323 323 324 325 325 324 323 321 323 331 333 333 332
327 327 327 326 323 324 322 325 330 332 332 332 332 331 331 331 331 328 327 324 323 323 324 324 325 324 324 323 322 322 326 328 329
328 327 327 326 327 329 330 329 330 331 331 331 330 330 329 330 330 331 330 328 327 325 324 325 325 325 325 324 323 324 324 326 328
329 327 327 326 327 329 330 329 329 330 329 329 329 330 329 326 328 329 329 328 328 327 325 324 326 326 325 325 324 325 325 326 326
329 328 330 329 328 328 328 328 329 329 329 330 330 329 328 326 324 326 327 327 327 327 326 326 324 324 323 323 324 324 325 325 326
328 328 328 328 327 327 326 327 328 328 328 329 328 329 329 328 326 327 323 324 325 325 325 324 324 323 323 323 323 324 326 326 325

GFSFLT1_925_thetae_117.txt.gz
Theta_e
343 339 337 332 342 342 341 341 339 335 329 336 332 327 328 330 330 331 331 331 328 335 334 332 333 333 332 332 331 331 331 330 330
341 340 338 335 335 341 340 340 339 332 326 330 329 328 323 329 328 328 330 331 325 333 333 333 333 333 332 332 331 331 330 330 329
340 340 340 337 331 336 340 339 339 329 324 325 325 324 320 329 328 328 330 332 324 334 333 332 332 332 332 331 331 331 330 329 329
338 338 339 339 336 336 340 339 338 328 322 324 321 318 318 328 328 331 330 333 329 334 329 329 332 331 330 329 329 329 328 326 326
337 337 337 338 339 337 339 339 339 335 322 323 325 323 318 325 328 329 331 332 330 334 329 328 329 328 326 324 323 323 323 323 323
336 336 335 336 336 338 336 338 340 338 330 325 325 325 323 321 328 329 328 331 331 330 328 329 331 329 325 323 322 322 321 322 321
334 335 337 337 336 337 336 337 339 339 333 325 326 326 323 322 327 328 327 329 330 330 327 327 329 329 326 324 323 322 321 321 321
336 336 338 338 339 338 338 336 339 338 336 328 326 325 324 323 327 329 327 328 329 331 333 327 328 329 327 325 323 323 322 321 321
336 335 336 337 338 338 338 337 337 338 338 334 327 327 326 324 329 330 327 328 328 330 334 330 325 327 328 326 325 324 324 323 323
336 337 337 337 338 338 338 338 337 337 338 337 330 331 330 328 325 330 329 329 328 327 332 335 333 328 328 329 327 326 325 325 325
336 336 336 335 337 338 338 337 337 338 338 337 334 330 329 329 329 330 329 328 328 326 324 332 335 335 334 332 332 329 327 325 325
335 336 334 334 337 338 337 336 337 338 338 337 336 335 329 328 328 330 328 327 326 325 324 323 326 334 335 335 334 332 329 327 325
335 334 335 335 335 336 335 335 335 336 337 336 335 333 332 330 328 325 326 326 326 325 325 324 323 323 332 335 336 335 333 332 330
333 332 333 333 334 333 334 334 335 335 333 335 336 333 328 331 327 323 323 323 324 324 324 324 323 323 322 328 333 334 334 333 332
332 330 331 332 333 333 333 332 332 331 330 331 331 331 330 331 330 325 323 321 322 322 322 322 323 324 324 322 324 331 333 333 332
330 330 330 331 331 331 330 329 329 327 327 328 329 330 331 331 331 331 328 325 323 322 322 323 323 324 324 324 323 322 323 330 332
328 328 329 328 329 327 324 323 325 327 327 329 329 330 329 331 331 330 330 330 330 329 328 323 323 323 323 324 324 323 323 322 328
323 327 327 327 325 323 324 325 328 329 328 329 328 329 329 326 328 329 329 329 330 329 329 327 325 324 324 325 325 324 324 323 323
321 324 326 326 326 325 324 325 327 328 328 328 328 328 327 325 325 326 328 328 328 328 328 328 327 326 325 325 325 325 323 323 324
318 319 321 326 325 326 327 327 327 328 327 327 327 327 327 327 327 329 325 326 325 325 325 326 326 325 325 325 324 324 324 323 323

GFSFLT1_925_thetae_120.txt.gz
Theta_e
342 341 338 329 338 341 340 340 340 336 330 331 329 333 332 329 331 333 332 329 327 334 325 328 333 332 332 332 331 331 330 330 331
341 340 339 336 331 341 341 339 340 337 329 329 326 327 328 328 329 330 330 330 329 330 327 333 333 332 332 331 331 331 330 330 329
340 340 339 338 333 334 341 339 340 338 328 325 327 325 323 327 328 327 329 331 331 334 333 333 333 332 332 331 331 331 330 329 329
339 339 339 339 338 331 336 340 339 338 328 322 323 325 320 327 328 328 330 330 333 334 333 332 332 332 332 330 330 329 328 327 327
337 337 337 337 339 337 335 339 339 338 333 322 323 320 318 324 327 329 331 331 334 334 330 329 331 331 330 327 324 323 323 323 324
337 336 335 336 336 337 338 337 338 339 338 327 322 323 322 318 326 328 329 331 335 334 326 328 332 331 325 324 323 323 322 321 321
335 334 334 334 335 335 337 337 336 339 339 335 326 325 324 323 320 328 328 330 335 335 330 326 330 331 326 324 323 322 322 322 321
332 333 335 334 338 338 336 337 336 338 339 338 330 324 325 324 321 327 327 329 334 336 332 325 327 330 326 323 323 323 323 322 321
335 335 336 335 337 337 338 337 336 336 338 338 334 329 324 324 323 322 327 327 331 336 335 328 327 329 330 327 325 324 323 323 322
338 336 335 335 335 336 337 338 337 336 337 338 336 334 328 324 324 323 329 329 328 329 334 335 332 331 331 331 329 326 324 324 324
335 336 336 336 336 337 337 337 338 337 337 337 337 337 333 328 329 328 325 329 328 329 328 331 335 334 333 332 332 330 327 325 324
331 334 334 335 336 336 336 337 337 336 337 337 337 337 336 331 329 329 328 329 329 328 328 326 327 333 333 333 333 332 330 329 326
325 328 333 333 334 334 334 335 335 336 336 337 336 336 335 334 331 328 329 329 329 328 327 326 325 324 332 334 335 334 332 331 328
324 327 330 331 332 333 333 335 335 335 336 335 335 335 335 331 326 325 322 322 326 327 327 326 325 324 323 327 333 334 334 334 333
324 324 325 329 330 331 332 333 333 333 334 334 332 331 331 329 330 330 330 330 324 322 324 325 325 324 324 323 324 328 332 333 333
314 315 320 325 329 330 329 330 332 333 331 329 327 327 329 330 328 327 329 329 327 323 323 322 322 323 323 323 323 323 323 327 331
312 316 321 324 327 329 330 330 329 330 329 328 328 326 328 330 330 330 330 330 330 329 327 325 322 322 322 322 323 323 324 324 326
319 319 320 323 325 326 328 328 328 327 327 328 325 326 326 325 329 329 324 326 329 329 329 329 329 329 328 323 323 323 323 324 324
312 316 320 321 323 325 326 327 323 326 327 328 328 328 326 324 324 325 328 328 328 328 328 327 328 328 328 326 325 324 324 324 324
305 307 314 317 320 320 324 324 324 327 326 326 327 326 326 326 326 328 326 325 326 326 326 325 325 325 326 326 326 326 325 324 325

GFSFLT1_925_thetae_123.txt.gz
Theta_e
341 341 340 335 332 341 341 339 340 339 334 330 333 336 334 330 331 332 332 329 329 333 328 328 332 332 332 332 331 331 330 331 331
339 340 340 338 333 335 340 339 340 338 333 327 329 333 332 329 330 332 331 329 334 334 330 333 333 332 332 332 331 330 330 330 329
339 339 339 339 337 330 337 339 339 339 336 326 327 328 329 327 328 328 329 330 334 334 333 333 333 332 332 331 331 330 330 330 330
339 339 338 338 339 338 331 338 339 339 338 331 323 326 326 325 327 327 328 330 334 334 334 333 333 332 332 331 331 330 329 327 326
337 337 337 336 337 338 337 332 337 339 338 336 322 322 326 322 326 327 328 330 335 336 334 331 333 332 332 328 327 326 325 323 324
336 337 337 336 335 336 337 337 336 338 339 338 329 322 322 319 321 327 328 330 334 336 334 333 333 332 332 328 326 324 323 323 322
335 335 336 336 336 335 335 336 338 337 338 339 336 326 322 322 319 324 327 328 332 336 335 331 331 332 332 327 323 323 323 323 323
337 336 334 333 333 335 335 336 336 338 337 338 338 333 326 324 324 321 323 328 330 336 336 333 330 332 331 328 327 326 324 323 323
334 337 337 335 335 336 335 338 337 336 336 336 338 337 333 327 324 324 321 327 327 336 337 336 332 331 332 331 328 326 325 324 323
314 322 332 336 336 335 335 336 336 337 337 335 336 338 337 332 326 324 322 324 327 329 335 337 335 333 332 332 331 330 327 326 324
311 312 320 329 334 335 335 335 335 335 336 336 336 337 338 335 332 326 324 323 324 329 328 335 336 335 333 332 332 331 330 329 327
308 308 314 324 325 332 333 335 335 335 336 336 335 336 337 337 336 332 328 328 325 327 328 329 333 334 334 333 332 331 330 330 330
308 308 313 322 327 328 332 334 335 335 335 335 334 335 336 336 336 334 332 329 329 327 328 328 328 328 331 334 333 331 331 330 329
318 320 321 322 323 325 329 331 333 333 333 333 333 334 335 334 334 331 331 327 325 327 328 329 329 328 326 330 333 332 332 333 332
313 312 310 310 314 324 327 329 331 332 332 332 332 333 335 333 333 333 330 328 326 324 324 326 328 328 327 325 325 327 331 333 333
315 317 318 317 318 318 324 327 329 330 330 331 330 332 332 331 330 329 327 328 328 326 328 324 323 323 326 326 325 324 324 325 328
311 312 314 317 320 321 321 323 325 328 329 329 326 328 328 328 329 330 328 326 327 328 328 329 327 324 322 322 322 323 323 324 324
310 309 312 312 317 321 322 323 324 326 327 328 327 326 325 324 328 329 329 329 328 329 327 328 328 328 327 326 324 323 325 322 323
307 307 309 308 311 319 323 324 324 326 326 327 327 326 325 325 324 325 330 329 329 327 326 326 328 328 327 327 327 327 327 324 323
300 302 305 306 306 309 315 319 321 324 324 325 325 326 326 326 325 327 324 324 326 327 327 327 326 325 325 325 325 324 325 326 326

GFSFLT1_925_thetae_126.txt.gz
Theta_e
339 340 341 339 333 330 339 340 338 340 336 332 333 336 336 334 330 332 333 330 329 334 334 328 329 332 332 332 331 331 331 331 332
339 338 339 339 338 335 332 340 338 340 338 332 330 335 335 331 329 330 332 330 332 334 333 333 333 332 332 331 331 330 330 329 327
338 338 338 339 339 338 333 336 339 338 339 336 328 331 333 331 328 329 330 328 332 335 333 333 333 332 332 332 331 330 330 329 329
337 337 338 338 337 338 338 334 335 339 339 338 332 327 330 330 327 327 327 327 330 335 334 333 333 332 332 332 331 331 330 329 328
337 337 336 336 336 336 337 337 335 333 338 338 337 328 327 328 325 326 327 327 330 335 335 333 333 332 332 331 331 330 329 327 326
338 337 335 335 336 336 335 336 337 336 334 337 338 337 325 326 326 322 326 327 329 335 336 334 333 333 332 331 330 329 330 329 327
329 336 337 335 334 334 334 335 335 336 337 337 338 338 333 325 324 320 322 327 329 335 337 335 333 333 332 331 329 329 329 329 328
311 319 329 336 336 335 333 333 334 334 335 338 337 338 337 330 325 321 319 324 326 335 336 335 334 333 332 332 330 330 328 328 326
308 309 313 317 325 332 335 335 335 334 336 336 336 336 337 337 331 324 323 322 322 332 336 335 335 334 332 332 331 330 327 327 326
308 308 309 310 311 319 328 332 334 335 335 335 335 336 336 337 337 334 327 324 322 325 335 336 337 335 333 332 332 331 330 328 326
308 308 308 308 308 311 321 326 331 333 334 334 333 334 335 335 337 337 333 326 326 323 326 335 337 337 336 334 332 331 330 330 329
308 310 311 311 315 323 325 326 328 332 333 333 334 334 334 334 335 336 336 333 327 325 324 326 330 334 336 335 333 332 330 329 329
312 312 313 313 315 317 324 326 328 329 332 334 333 333 333 333 333 334 335 336 334 327 327 326 326 329 334 335 334 333 331 330 330
311 312 313 312 312 313 314 321 325 326 329 332 332 332 333 332 333 333 333 334 334 333 329 329 328 327 329 333 334 334 332 331 331
311 312 311 312 316 317 317 317 317 325 327 329 330 330 331 332 331 332 332 332 332 332 330 329 328 328 329 330 330 331 332 329 329
309 310 311 311 312 313 317 319 320 320 324 327 328 329 329 330 331 331 332 332 332 329 328 326 327 328 329 329 329 329 328 328 328
307 307 308 309 310 313 313 317 320 321 321 325 326 328 327 328 328 332 331 331 329 328 327 326 327 328 328 329 327 326 325 325 327
302 305 307 305 307 309 310 315 317 319 322 323 324 326 327 322 327 328 329 329 328 327 326 328 328 329 328 327 325 326 324 322 322
299 300 302 301 305 306 307 310 316 318 319 322 324 325 324 325 325 326 327 328 328 329 328 327 328 327 326 327 327 327 326 326 326
296 298 299 301 302 300 304 306 310 312 319 321 323 324 324 324 324 326 323 326 327 329 328 327 326 326 327 326 325 324 324 324 324